<?xml version="1.0" encoding="UTF-8" standalone="yes"?>
<gpx
 xmlns="http://www.topografix.com/GPX/1/1"
 creator="OziExplorer Version 3956f - http://www.oziexplorer.com"
 version="1.1"
 xmlns:xsi="http://www.w3.org/2001/XMLSchema-instance"
 xsi:schemaLocation="http://www.topografix.com/GPX/1/1 http://www.topografix.com/GPX/1/1/gpx.xsd">
<metadata>
 <time>2022-09-14T05:39:02Z</time>
 <bounds minlat="31.735210" minlon="35.090190" maxlat="31.774040" maxlon="35.177170"/>
</metadata>
<wpt lat="31.7665300" lon="35.1580100">
 <time>2022-09-14T08:38:32.155Z</time>
 <name>Velotonnel_St</name>
 <sym>Flag, Red</sym>
</wpt>
<wpt lat="31.7453000" lon="35.1769500">
 <time>2022-09-14T08:38:32.172Z</time>
 <name>Zoo</name>
 <sym>Flag, Red</sym>
</wpt>
<wpt lat="31.7475400" lon="35.1611600">
 <time>2022-09-14T08:38:32.172Z</time>
 <name>Velotonnel_Fin</name>
 <sym>Flag, Red</sym>
</wpt>
<trk>
 <name>Sorek-Adasa-tonnel-Aminadav,30km.</name>
 <desc>Sorek-Adasa-tonnel-Aminadav,30km.</desc>
<trkseg>
<trkpt lat="31.7552500" lon="35.1117900">
<ele>453.140015</ele>
<time>2022-09-14T08:38:32.172Z</time>
</trkpt>
<trkpt lat="31.7552500" lon="35.1118400">
<ele>453.320007</ele>
<time>2022-09-14T08:38:32.172Z</time>
</trkpt>
<trkpt lat="31.7552900" lon="35.1117200">
<ele>453.159973</ele>
<time>2022-09-14T08:38:32.172Z</time>
</trkpt>
<trkpt lat="31.7554600" lon="35.1116300">
<ele>452.210022</ele>
<time>2022-09-14T08:38:32.172Z</time>
</trkpt>
<trkpt lat="31.7555900" lon="35.1115300">
<ele>451.260010</ele>
<time>2022-09-14T08:38:32.172Z</time>
</trkpt>
<trkpt lat="31.7556400" lon="35.1115100">
<ele>450.869995</ele>
<time>2022-09-14T08:38:32.172Z</time>
</trkpt>
<trkpt lat="31.7557600" lon="35.1114800">
<ele>450.110016</ele>
<time>2022-09-14T08:38:32.172Z</time>
</trkpt>
<trkpt lat="31.7558900" lon="35.1113700">
<ele>450.710022</ele>
<time>2022-09-14T08:38:32.172Z</time>
</trkpt>
<trkpt lat="31.7561700" lon="35.1115200">
<ele>451.430023</ele>
<time>2022-09-14T08:38:32.172Z</time>
</trkpt>
<trkpt lat="31.7567500" lon="35.1117000">
<ele>456.809998</ele>
<time>2022-09-14T08:38:32.172Z</time>
</trkpt>
<trkpt lat="31.7567700" lon="35.1118300">
<ele>456.690002</ele>
<time>2022-09-14T08:38:32.172Z</time>
</trkpt>
<trkpt lat="31.7567700" lon="35.1118300">
<ele>456.690002</ele>
<time>2022-09-14T08:38:32.172Z</time>
</trkpt>
<trkpt lat="31.7567700" lon="35.1118300">
<ele>456.690002</ele>
<time>2022-09-14T08:38:32.172Z</time>
</trkpt>
<trkpt lat="31.7568100" lon="35.1120700">
<ele>457.589996</ele>
<time>2022-09-14T08:38:32.172Z</time>
</trkpt>
<trkpt lat="31.7567900" lon="35.1125700">
<ele>458.079987</ele>
<time>2022-09-14T08:38:32.172Z</time>
</trkpt>
<trkpt lat="31.7557200" lon="35.1153000">
<ele>456.709991</ele>
<time>2022-09-14T08:38:32.172Z</time>
</trkpt>
<trkpt lat="31.7557400" lon="35.1157100">
<ele>459.180023</ele>
<time>2022-09-14T08:38:32.172Z</time>
</trkpt>
<trkpt lat="31.7559000" lon="35.1163300">
<ele>460.569977</ele>
<time>2022-09-14T08:38:32.172Z</time>
</trkpt>
<trkpt lat="31.7561400" lon="35.1165900">
<ele>461.609985</ele>
<time>2022-09-14T08:38:32.172Z</time>
</trkpt>
<trkpt lat="31.7565700" lon="35.1168700">
<ele>464.840027</ele>
<time>2022-09-14T08:38:32.172Z</time>
</trkpt>
<trkpt lat="31.7584100" lon="35.1174600">
<ele>469.869995</ele>
<time>2022-09-14T08:38:32.172Z</time>
</trkpt>
<trkpt lat="31.7586200" lon="35.1174600">
<ele>466.019989</ele>
<time>2022-09-14T08:38:32.172Z</time>
</trkpt>
<trkpt lat="31.7591400" lon="35.1175300">
<ele>458.570007</ele>
<time>2022-09-14T08:38:32.172Z</time>
</trkpt>
<trkpt lat="31.7595100" lon="35.1175400">
<ele>458.739990</ele>
<time>2022-09-14T08:38:32.172Z</time>
</trkpt>
<trkpt lat="31.7596400" lon="35.1175300">
<ele>460.190002</ele>
<time>2022-09-14T08:38:32.172Z</time>
</trkpt>
<trkpt lat="31.7601900" lon="35.1176000">
<ele>465.820007</ele>
<time>2022-09-14T08:38:32.172Z</time>
</trkpt>
<trkpt lat="31.7604000" lon="35.1176100">
<ele>470.720001</ele>
<time>2022-09-14T08:38:32.172Z</time>
</trkpt>
<trkpt lat="31.7609100" lon="35.1177100">
<ele>480.599976</ele>
<time>2022-09-14T08:38:32.172Z</time>
</trkpt>
<trkpt lat="31.7613300" lon="35.1178400">
<ele>486.729980</ele>
<time>2022-09-14T08:38:32.172Z</time>
</trkpt>
<trkpt lat="31.7616000" lon="35.1179500">
<ele>487.750000</ele>
<time>2022-09-14T08:38:32.172Z</time>
</trkpt>
<trkpt lat="31.7617900" lon="35.1180600">
<ele>483.010010</ele>
<time>2022-09-14T08:38:32.172Z</time>
</trkpt>
<trkpt lat="31.7621800" lon="35.1183500">
<ele>472.290009</ele>
<time>2022-09-14T08:38:32.172Z</time>
</trkpt>
<trkpt lat="31.7632600" lon="35.1195800">
<ele>470.000000</ele>
<time>2022-09-14T08:38:32.172Z</time>
</trkpt>
<trkpt lat="31.7634000" lon="35.1197400">
<ele>469.550018</ele>
<time>2022-09-14T08:38:32.172Z</time>
</trkpt>
<trkpt lat="31.7635300" lon="35.1199400">
<ele>471.390015</ele>
<time>2022-09-14T08:38:32.172Z</time>
</trkpt>
<trkpt lat="31.7636600" lon="35.1202300">
<ele>472.249969</ele>
<time>2022-09-14T08:38:32.172Z</time>
</trkpt>
<trkpt lat="31.7637000" lon="35.1205500">
<ele>472.769989</ele>
<time>2022-09-14T08:38:32.172Z</time>
</trkpt>
<trkpt lat="31.7637700" lon="35.1213400">
<ele>471.699982</ele>
<time>2022-09-14T08:38:32.172Z</time>
</trkpt>
<trkpt lat="31.7638000" lon="35.1222300">
<ele>470.060028</ele>
<time>2022-09-14T08:38:32.172Z</time>
</trkpt>
<trkpt lat="31.7638500" lon="35.1227700">
<ele>468.630005</ele>
<time>2022-09-14T08:38:32.172Z</time>
</trkpt>
<trkpt lat="31.7639700" lon="35.1236000">
<ele>471.720001</ele>
<time>2022-09-14T08:38:32.172Z</time>
</trkpt>
<trkpt lat="31.7640300" lon="35.1238000">
<ele>474.100006</ele>
<time>2022-09-14T08:38:32.172Z</time>
</trkpt>
<trkpt lat="31.7640800" lon="35.1240800">
<ele>475.849976</ele>
<time>2022-09-14T08:38:32.172Z</time>
</trkpt>
<trkpt lat="31.7641100" lon="35.1243800">
<ele>477.910004</ele>
<time>2022-09-14T08:38:32.172Z</time>
</trkpt>
<trkpt lat="31.7641000" lon="35.1245100">
<ele>478.230011</ele>
<time>2022-09-14T08:38:32.172Z</time>
</trkpt>
<trkpt lat="31.7640000" lon="35.1249000">
<ele>475.940002</ele>
<time>2022-09-14T08:38:32.172Z</time>
</trkpt>
<trkpt lat="31.7639000" lon="35.1251700">
<ele>471.269989</ele>
<time>2022-09-14T08:38:32.172Z</time>
</trkpt>
<trkpt lat="31.7636100" lon="35.1257800">
<ele>468.560028</ele>
<time>2022-09-14T08:38:32.172Z</time>
</trkpt>
<trkpt lat="31.7635400" lon="35.1259700">
<ele>467.830017</ele>
<time>2022-09-14T08:38:32.172Z</time>
</trkpt>
<trkpt lat="31.7634900" lon="35.1261500">
<ele>468.439972</ele>
<time>2022-09-14T08:38:32.172Z</time>
</trkpt>
<trkpt lat="31.7634800" lon="35.1262300">
<ele>469.550018</ele>
<time>2022-09-14T08:38:32.172Z</time>
</trkpt>
<trkpt lat="31.7634800" lon="35.1262300">
<ele>469.550018</ele>
<time>2022-09-14T08:38:32.172Z</time>
</trkpt>
<trkpt lat="31.7634800" lon="35.1262300">
<ele>469.550018</ele>
<time>2022-09-14T08:38:32.172Z</time>
</trkpt>
<trkpt lat="31.7634100" lon="35.1268300">
<ele>474.119995</ele>
<time>2022-09-14T08:38:32.172Z</time>
</trkpt>
<trkpt lat="31.7634100" lon="35.1269900">
<ele>475.039978</ele>
<time>2022-09-14T08:38:32.172Z</time>
</trkpt>
<trkpt lat="31.7634500" lon="35.1271500">
<ele>476.310028</ele>
<time>2022-09-14T08:38:32.172Z</time>
</trkpt>
<trkpt lat="31.7635400" lon="35.1272600">
<ele>477.609985</ele>
<time>2022-09-14T08:38:32.172Z</time>
</trkpt>
<trkpt lat="31.7637200" lon="35.1274500">
<ele>476.109985</ele>
<time>2022-09-14T08:38:32.172Z</time>
</trkpt>
<trkpt lat="31.7638500" lon="35.1275500">
<ele>475.549988</ele>
<time>2022-09-14T08:38:32.172Z</time>
</trkpt>
<trkpt lat="31.7642000" lon="35.1277400">
<ele>467.040009</ele>
<time>2022-09-14T08:38:32.172Z</time>
</trkpt>
<trkpt lat="31.7643300" lon="35.1278100">
<ele>467.350006</ele>
<time>2022-09-14T08:38:32.172Z</time>
</trkpt>
<trkpt lat="31.7644300" lon="35.1278500">
<ele>468.750000</ele>
<time>2022-09-14T08:38:32.172Z</time>
</trkpt>
<trkpt lat="31.7645500" lon="35.1278700">
<ele>468.059998</ele>
<time>2022-09-14T08:38:32.172Z</time>
</trkpt>
<trkpt lat="31.7647900" lon="35.1278600">
<ele>466.649994</ele>
<time>2022-09-14T08:38:32.172Z</time>
</trkpt>
<trkpt lat="31.7656700" lon="35.1276000">
<ele>470.400024</ele>
<time>2022-09-14T08:38:32.172Z</time>
</trkpt>
<trkpt lat="31.7660600" lon="35.1275100">
<ele>471.940002</ele>
<time>2022-09-14T08:38:32.172Z</time>
</trkpt>
<trkpt lat="31.7664800" lon="35.1275200">
<ele>478.899994</ele>
<time>2022-09-14T08:38:32.172Z</time>
</trkpt>
<trkpt lat="31.7666500" lon="35.1275500">
<ele>480.590027</ele>
<time>2022-09-14T08:38:32.172Z</time>
</trkpt>
<trkpt lat="31.7667700" lon="35.1275900">
<ele>482.779968</ele>
<time>2022-09-14T08:38:32.172Z</time>
</trkpt>
<trkpt lat="31.7670100" lon="35.1277300">
<ele>486.889984</ele>
<time>2022-09-14T08:38:32.172Z</time>
</trkpt>
<trkpt lat="31.7677500" lon="35.1282300">
<ele>483.540009</ele>
<time>2022-09-14T08:38:32.172Z</time>
</trkpt>
<trkpt lat="31.7680300" lon="35.1284500">
<ele>488.080017</ele>
<time>2022-09-14T08:38:32.172Z</time>
</trkpt>
<trkpt lat="31.7680800" lon="35.1285100">
<ele>488.139984</ele>
<time>2022-09-14T08:38:32.172Z</time>
</trkpt>
<trkpt lat="31.7681200" lon="35.1286000">
<ele>487.339996</ele>
<time>2022-09-14T08:38:32.172Z</time>
</trkpt>
<trkpt lat="31.7681900" lon="35.1288000">
<ele>486.529999</ele>
<time>2022-09-14T08:38:32.172Z</time>
</trkpt>
<trkpt lat="31.7683500" lon="35.1295200">
<ele>480.869995</ele>
<time>2022-09-14T08:38:32.172Z</time>
</trkpt>
<trkpt lat="31.7686000" lon="35.1303600">
<ele>485.099976</ele>
<time>2022-09-14T08:38:32.172Z</time>
</trkpt>
<trkpt lat="31.7686400" lon="35.1304300">
<ele>484.610016</ele>
<time>2022-09-14T08:38:32.172Z</time>
</trkpt>
<trkpt lat="31.7687300" lon="35.1305300">
<ele>482.630005</ele>
<time>2022-09-14T08:38:32.172Z</time>
</trkpt>
<trkpt lat="31.7688200" lon="35.1305900">
<ele>480.609985</ele>
<time>2022-09-14T08:38:32.172Z</time>
</trkpt>
<trkpt lat="31.7689600" lon="35.1306300">
<ele>477.790009</ele>
<time>2022-09-14T08:38:32.172Z</time>
</trkpt>
<trkpt lat="31.7695400" lon="35.1307600">
<ele>476.229980</ele>
<time>2022-09-14T08:38:32.172Z</time>
</trkpt>
<trkpt lat="31.7696700" lon="35.1307500">
<ele>474.869995</ele>
<time>2022-09-14T08:38:32.172Z</time>
</trkpt>
<trkpt lat="31.7699200" lon="35.1306400">
<ele>475.649994</ele>
<time>2022-09-14T08:38:32.172Z</time>
</trkpt>
<trkpt lat="31.7703500" lon="35.1304500">
<ele>483.220001</ele>
<time>2022-09-14T08:38:32.172Z</time>
</trkpt>
<trkpt lat="31.7708000" lon="35.1303100">
<ele>481.870026</ele>
<time>2022-09-14T08:38:32.172Z</time>
</trkpt>
<trkpt lat="31.7711200" lon="35.1302300">
<ele>488.729980</ele>
<time>2022-09-14T08:38:32.172Z</time>
</trkpt>
<trkpt lat="31.7712500" lon="35.1302200">
<ele>492.020020</ele>
<time>2022-09-14T08:38:32.172Z</time>
</trkpt>
<trkpt lat="31.7714400" lon="35.1302900">
<ele>494.399994</ele>
<time>2022-09-14T08:38:32.172Z</time>
</trkpt>
<trkpt lat="31.7716200" lon="35.1304200">
<ele>491.570007</ele>
<time>2022-09-14T08:38:32.172Z</time>
</trkpt>
<trkpt lat="31.7716800" lon="35.1304700">
<ele>490.690002</ele>
<time>2022-09-14T08:38:32.172Z</time>
</trkpt>
<trkpt lat="31.7716800" lon="35.1304700">
<ele>490.690002</ele>
<time>2022-09-14T08:38:32.172Z</time>
</trkpt>
<trkpt lat="31.7716800" lon="35.1304700">
<ele>490.690002</ele>
<time>2022-09-14T08:38:32.172Z</time>
</trkpt>
<trkpt lat="31.7717000" lon="35.1304900">
<ele>490.650024</ele>
<time>2022-09-14T08:38:32.172Z</time>
</trkpt>
<trkpt lat="31.7717700" lon="35.1305800">
<ele>490.239990</ele>
<time>2022-09-14T08:38:32.172Z</time>
</trkpt>
<trkpt lat="31.7718500" lon="35.1307300">
<ele>489.000000</ele>
<time>2022-09-14T08:38:32.172Z</time>
</trkpt>
<trkpt lat="31.7719100" lon="35.1308900">
<ele>487.549988</ele>
<time>2022-09-14T08:38:32.172Z</time>
</trkpt>
<trkpt lat="31.7719900" lon="35.1313200">
<ele>489.079987</ele>
<time>2022-09-14T08:38:32.172Z</time>
</trkpt>
<trkpt lat="31.7720000" lon="35.1316500">
<ele>488.070007</ele>
<time>2022-09-14T08:38:32.172Z</time>
</trkpt>
<trkpt lat="31.7719700" lon="35.1318700">
<ele>487.270020</ele>
<time>2022-09-14T08:38:32.172Z</time>
</trkpt>
<trkpt lat="31.7719600" lon="35.1320900">
<ele>486.970001</ele>
<time>2022-09-14T08:38:32.172Z</time>
</trkpt>
<trkpt lat="31.7720900" lon="35.1332300">
<ele>492.710022</ele>
<time>2022-09-14T08:38:32.172Z</time>
</trkpt>
<trkpt lat="31.7722500" lon="35.1341200">
<ele>494.479980</ele>
<time>2022-09-14T08:38:32.172Z</time>
</trkpt>
<trkpt lat="31.7722600" lon="35.1346000">
<ele>499.349976</ele>
<time>2022-09-14T08:38:32.172Z</time>
</trkpt>
<trkpt lat="31.7722400" lon="35.1348100">
<ele>500.929993</ele>
<time>2022-09-14T08:38:32.172Z</time>
</trkpt>
<trkpt lat="31.7722000" lon="35.1349300">
<ele>500.960022</ele>
<time>2022-09-14T08:38:32.172Z</time>
</trkpt>
<trkpt lat="31.7721300" lon="35.1350500">
<ele>500.670013</ele>
<time>2022-09-14T08:38:32.172Z</time>
</trkpt>
<trkpt lat="31.7720000" lon="35.1351300">
<ele>500.200012</ele>
<time>2022-09-14T08:38:32.172Z</time>
</trkpt>
<trkpt lat="31.7718600" lon="35.1351500">
<ele>500.750000</ele>
<time>2022-09-14T08:38:32.172Z</time>
</trkpt>
<trkpt lat="31.7717200" lon="35.1351200">
<ele>502.070007</ele>
<time>2022-09-14T08:38:32.172Z</time>
</trkpt>
<trkpt lat="31.7714800" lon="35.1350100">
<ele>506.199982</ele>
<time>2022-09-14T08:38:32.172Z</time>
</trkpt>
<trkpt lat="31.7712800" lon="35.1349500">
<ele>509.220001</ele>
<time>2022-09-14T08:38:32.172Z</time>
</trkpt>
<trkpt lat="31.7711800" lon="35.1349400">
<ele>509.619995</ele>
<time>2022-09-14T08:38:32.172Z</time>
</trkpt>
<trkpt lat="31.7711000" lon="35.1349600">
<ele>509.079987</ele>
<time>2022-09-14T08:38:32.172Z</time>
</trkpt>
<trkpt lat="31.7709800" lon="35.1350100">
<ele>506.850006</ele>
<time>2022-09-14T08:38:32.172Z</time>
</trkpt>
<trkpt lat="31.7707300" lon="35.1352000">
<ele>502.750000</ele>
<time>2022-09-14T08:38:32.172Z</time>
</trkpt>
<trkpt lat="31.7706200" lon="35.1353200">
<ele>500.710022</ele>
<time>2022-09-14T08:38:32.172Z</time>
</trkpt>
<trkpt lat="31.7704900" lon="35.1355600">
<ele>499.640015</ele>
<time>2022-09-14T08:38:32.172Z</time>
</trkpt>
<trkpt lat="31.7700900" lon="35.1366400">
<ele>496.229980</ele>
<time>2022-09-14T08:38:32.172Z</time>
</trkpt>
<trkpt lat="31.7700800" lon="35.1367300">
<ele>496.130005</ele>
<time>2022-09-14T08:38:32.172Z</time>
</trkpt>
<trkpt lat="31.7701200" lon="35.1369300">
<ele>496.819977</ele>
<time>2022-09-14T08:38:32.172Z</time>
</trkpt>
<trkpt lat="31.7701200" lon="35.1371100">
<ele>497.540009</ele>
<time>2022-09-14T08:38:32.172Z</time>
</trkpt>
<trkpt lat="31.7701600" lon="35.1374000">
<ele>496.819977</ele>
<time>2022-09-14T08:38:32.172Z</time>
</trkpt>
<trkpt lat="31.7701600" lon="35.1377100">
<ele>496.149994</ele>
<time>2022-09-14T08:38:32.172Z</time>
</trkpt>
<trkpt lat="31.7701400" lon="35.1378700">
<ele>496.179993</ele>
<time>2022-09-14T08:38:32.172Z</time>
</trkpt>
<trkpt lat="31.7701000" lon="35.1379700">
<ele>495.970001</ele>
<time>2022-09-14T08:38:32.172Z</time>
</trkpt>
<trkpt lat="31.7700200" lon="35.1380800">
<ele>495.579987</ele>
<time>2022-09-14T08:38:32.172Z</time>
</trkpt>
<trkpt lat="31.7699400" lon="35.1381500">
<ele>496.569977</ele>
<time>2022-09-14T08:38:32.172Z</time>
</trkpt>
<trkpt lat="31.7697100" lon="35.1383100">
<ele>497.899994</ele>
<time>2022-09-14T08:38:32.172Z</time>
</trkpt>
<trkpt lat="31.7693700" lon="35.1386000">
<ele>498.570007</ele>
<time>2022-09-14T08:38:32.172Z</time>
</trkpt>
<trkpt lat="31.7691000" lon="35.1389200">
<ele>502.100006</ele>
<time>2022-09-14T08:38:32.172Z</time>
</trkpt>
<trkpt lat="31.7690100" lon="35.1390400">
<ele>503.419983</ele>
<time>2022-09-14T08:38:32.172Z</time>
</trkpt>
<trkpt lat="31.7689500" lon="35.1391500">
<ele>503.799988</ele>
<time>2022-09-14T08:38:32.172Z</time>
</trkpt>
<trkpt lat="31.7688800" lon="35.1393500">
<ele>503.929993</ele>
<time>2022-09-14T08:38:32.172Z</time>
</trkpt>
<trkpt lat="31.7688500" lon="35.1396500">
<ele>504.820007</ele>
<time>2022-09-14T08:38:32.172Z</time>
</trkpt>
<trkpt lat="31.7688600" lon="35.1398900">
<ele>503.679993</ele>
<time>2022-09-14T08:38:32.172Z</time>
</trkpt>
<trkpt lat="31.7688600" lon="35.1403200">
<ele>503.230011</ele>
<time>2022-09-14T08:38:32.172Z</time>
</trkpt>
<trkpt lat="31.7688800" lon="35.1406300">
<ele>501.480011</ele>
<time>2022-09-14T08:38:32.172Z</time>
</trkpt>
<trkpt lat="31.7689700" lon="35.1414400">
<ele>502.699982</ele>
<time>2022-09-14T08:38:32.172Z</time>
</trkpt>
<trkpt lat="31.7689400" lon="35.1417500">
<ele>503.399994</ele>
<time>2022-09-14T08:38:32.172Z</time>
</trkpt>
<trkpt lat="31.7689400" lon="35.1417500">
<ele>503.399994</ele>
<time>2022-09-14T08:38:32.172Z</time>
</trkpt>
<trkpt lat="31.7689400" lon="35.1417500">
<ele>503.399994</ele>
<time>2022-09-14T08:38:32.172Z</time>
</trkpt>
<trkpt lat="31.7688700" lon="35.1423400">
<ele>508.259979</ele>
<time>2022-09-14T08:38:32.172Z</time>
</trkpt>
<trkpt lat="31.7688600" lon="35.1427200">
<ele>512.709961</ele>
<time>2022-09-14T08:38:32.172Z</time>
</trkpt>
<trkpt lat="31.7688800" lon="35.1428600">
<ele>514.630005</ele>
<time>2022-09-14T08:38:32.172Z</time>
</trkpt>
<trkpt lat="31.7689300" lon="35.1429800">
<ele>516.440002</ele>
<time>2022-09-14T08:38:32.172Z</time>
</trkpt>
<trkpt lat="31.7690900" lon="35.1432100">
<ele>514.559998</ele>
<time>2022-09-14T08:38:32.172Z</time>
</trkpt>
<trkpt lat="31.7692800" lon="35.1434100">
<ele>518.049988</ele>
<time>2022-09-14T08:38:32.172Z</time>
</trkpt>
<trkpt lat="31.7697200" lon="35.1436700">
<ele>530.809998</ele>
<time>2022-09-14T08:38:32.172Z</time>
</trkpt>
<trkpt lat="31.7706100" lon="35.1441100">
<ele>528.110046</ele>
<time>2022-09-14T08:38:32.172Z</time>
</trkpt>
<trkpt lat="31.7710100" lon="35.1443900">
<ele>517.210022</ele>
<time>2022-09-14T08:38:32.172Z</time>
</trkpt>
<trkpt lat="31.7712600" lon="35.1446200">
<ele>516.519958</ele>
<time>2022-09-14T08:38:32.172Z</time>
</trkpt>
<trkpt lat="31.7713500" lon="35.1447400">
<ele>515.760010</ele>
<time>2022-09-14T08:38:32.172Z</time>
</trkpt>
<trkpt lat="31.7714200" lon="35.1448800">
<ele>515.679993</ele>
<time>2022-09-14T08:38:32.172Z</time>
</trkpt>
<trkpt lat="31.7714400" lon="35.1449700">
<ele>515.380005</ele>
<time>2022-09-14T08:38:32.172Z</time>
</trkpt>
<trkpt lat="31.7714900" lon="35.1453900">
<ele>513.880005</ele>
<time>2022-09-14T08:38:32.172Z</time>
</trkpt>
<trkpt lat="31.7715000" lon="35.1456700">
<ele>514.690002</ele>
<time>2022-09-14T08:38:32.172Z</time>
</trkpt>
<trkpt lat="31.7715900" lon="35.1462500">
<ele>516.330017</ele>
<time>2022-09-14T08:38:32.172Z</time>
</trkpt>
<trkpt lat="31.7717000" lon="35.1465500">
<ele>516.850037</ele>
<time>2022-09-14T08:38:32.172Z</time>
</trkpt>
<trkpt lat="31.7718000" lon="35.1467400">
<ele>517.900024</ele>
<time>2022-09-14T08:38:32.172Z</time>
</trkpt>
<trkpt lat="31.7719400" lon="35.1469500">
<ele>517.119995</ele>
<time>2022-09-14T08:38:32.172Z</time>
</trkpt>
<trkpt lat="31.7721200" lon="35.1471600">
<ele>520.039978</ele>
<time>2022-09-14T08:38:32.172Z</time>
</trkpt>
<trkpt lat="31.7729400" lon="35.1479400">
<ele>518.419983</ele>
<time>2022-09-14T08:38:32.172Z</time>
</trkpt>
<trkpt lat="31.7733400" lon="35.1483000">
<ele>521.619995</ele>
<time>2022-09-14T08:38:32.172Z</time>
</trkpt>
<trkpt lat="31.7734100" lon="35.1483700">
<ele>521.820007</ele>
<time>2022-09-14T08:38:32.172Z</time>
</trkpt>
<trkpt lat="31.7734800" lon="35.1485000">
<ele>520.920044</ele>
<time>2022-09-14T08:38:32.172Z</time>
</trkpt>
<trkpt lat="31.7735400" lon="35.1486900">
<ele>519.270020</ele>
<time>2022-09-14T08:38:32.172Z</time>
</trkpt>
<trkpt lat="31.7736700" lon="35.1495100">
<ele>517.710022</ele>
<time>2022-09-14T08:38:32.172Z</time>
</trkpt>
<trkpt lat="31.7737100" lon="35.1496300">
<ele>518.619995</ele>
<time>2022-09-14T08:38:32.172Z</time>
</trkpt>
<trkpt lat="31.7737700" lon="35.1497400">
<ele>519.720032</ele>
<time>2022-09-14T08:38:32.172Z</time>
</trkpt>
<trkpt lat="31.7739600" lon="35.1500400">
<ele>521.809998</ele>
<time>2022-09-14T08:38:32.172Z</time>
</trkpt>
<trkpt lat="31.7740300" lon="35.1501900">
<ele>522.359985</ele>
<time>2022-09-14T08:38:32.172Z</time>
</trkpt>
<trkpt lat="31.7740400" lon="35.1502700">
<ele>522.290039</ele>
<time>2022-09-14T08:38:32.172Z</time>
</trkpt>
<trkpt lat="31.7740300" lon="35.1503100">
<ele>522.049988</ele>
<time>2022-09-14T08:38:32.172Z</time>
</trkpt>
<trkpt lat="31.7740000" lon="35.1503600">
<ele>521.399963</ele>
<time>2022-09-14T08:38:32.172Z</time>
</trkpt>
<trkpt lat="31.7739300" lon="35.1504300">
<ele>519.890015</ele>
<time>2022-09-14T08:38:32.172Z</time>
</trkpt>
<trkpt lat="31.7737700" lon="35.1505700">
<ele>516.929993</ele>
<time>2022-09-14T08:38:32.172Z</time>
</trkpt>
<trkpt lat="31.7736600" lon="35.1507000">
<ele>515.829956</ele>
<time>2022-09-14T08:38:32.172Z</time>
</trkpt>
<trkpt lat="31.7736000" lon="35.1508000">
<ele>515.770020</ele>
<time>2022-09-14T08:38:32.172Z</time>
</trkpt>
<trkpt lat="31.7735600" lon="35.1509300">
<ele>516.919983</ele>
<time>2022-09-14T08:38:32.172Z</time>
</trkpt>
<trkpt lat="31.7735600" lon="35.1510800">
<ele>518.340027</ele>
<time>2022-09-14T08:38:32.172Z</time>
</trkpt>
<trkpt lat="31.7735900" lon="35.1512800">
<ele>520.059998</ele>
<time>2022-09-14T08:38:32.172Z</time>
</trkpt>
<trkpt lat="31.7736000" lon="35.1515000">
<ele>520.950012</ele>
<time>2022-09-14T08:38:32.172Z</time>
</trkpt>
<trkpt lat="31.7735800" lon="35.1515800">
<ele>520.929993</ele>
<time>2022-09-14T08:38:32.172Z</time>
</trkpt>
<trkpt lat="31.7735800" lon="35.1520600">
<ele>519.710022</ele>
<time>2022-09-14T08:38:32.172Z</time>
</trkpt>
<trkpt lat="31.7735600" lon="35.1522500">
<ele>520.299988</ele>
<time>2022-09-14T08:38:32.172Z</time>
</trkpt>
<trkpt lat="31.7734900" lon="35.1524300">
<ele>520.780029</ele>
<time>2022-09-14T08:38:32.172Z</time>
</trkpt>
<trkpt lat="31.7733900" lon="35.1526300">
<ele>521.070007</ele>
<time>2022-09-14T08:38:32.172Z</time>
</trkpt>
<trkpt lat="31.7733000" lon="35.1528700">
<ele>519.960022</ele>
<time>2022-09-14T08:38:32.172Z</time>
</trkpt>
<trkpt lat="31.7732000" lon="35.1530400">
<ele>519.549988</ele>
<time>2022-09-14T08:38:32.172Z</time>
</trkpt>
<trkpt lat="31.7728400" lon="35.1534100">
<ele>518.450012</ele>
<time>2022-09-14T08:38:32.172Z</time>
</trkpt>
<trkpt lat="31.7724900" lon="35.1536300">
<ele>519.109985</ele>
<time>2022-09-14T08:38:32.172Z</time>
</trkpt>
<trkpt lat="31.7722300" lon="35.1536800">
<ele>519.729980</ele>
<time>2022-09-14T08:38:32.172Z</time>
</trkpt>
<trkpt lat="31.7712700" lon="35.1536800">
<ele>536.140015</ele>
<time>2022-09-14T08:38:32.172Z</time>
</trkpt>
<trkpt lat="31.7712700" lon="35.1536800">
<ele>536.140015</ele>
<time>2022-09-14T08:38:32.172Z</time>
</trkpt>
<trkpt lat="31.7712700" lon="35.1536800">
<ele>536.140015</ele>
<time>2022-09-14T08:38:32.172Z</time>
</trkpt>
<trkpt lat="31.7709100" lon="35.1536800">
<ele>536.460022</ele>
<time>2022-09-14T08:38:32.172Z</time>
</trkpt>
<trkpt lat="31.7704300" lon="35.1537600">
<ele>534.210022</ele>
<time>2022-09-14T08:38:32.172Z</time>
</trkpt>
<trkpt lat="31.7700100" lon="35.1540000">
<ele>539.440002</ele>
<time>2022-09-14T08:38:32.172Z</time>
</trkpt>
<trkpt lat="31.7700100" lon="35.1540000">
<ele>539.440002</ele>
<time>2022-09-14T08:38:32.172Z</time>
</trkpt>
<trkpt lat="31.7700100" lon="35.1540000">
<ele>539.440002</ele>
<time>2022-09-14T08:38:32.172Z</time>
</trkpt>
<trkpt lat="31.7699200" lon="35.1540500">
<ele>540.690002</ele>
<time>2022-09-14T08:38:32.172Z</time>
</trkpt>
<trkpt lat="31.7697700" lon="35.1541400">
<ele>542.489990</ele>
<time>2022-09-14T08:38:32.172Z</time>
</trkpt>
<trkpt lat="31.7696200" lon="35.1542300">
<ele>543.139954</ele>
<time>2022-09-14T08:38:32.172Z</time>
</trkpt>
<trkpt lat="31.7693300" lon="35.1544100">
<ele>544.020020</ele>
<time>2022-09-14T08:38:32.172Z</time>
</trkpt>
<trkpt lat="31.7686400" lon="35.1547900">
<ele>542.960022</ele>
<time>2022-09-14T08:38:32.172Z</time>
</trkpt>
<trkpt lat="31.7676700" lon="35.1560300">
<ele>550.869995</ele>
<time>2022-09-14T08:38:32.172Z</time>
</trkpt>
<trkpt lat="31.7673900" lon="35.1564000">
<ele>555.390015</ele>
<time>2022-09-14T08:38:32.172Z</time>
</trkpt>
<trkpt lat="31.7669500" lon="35.1572700">
<ele>563.669983</ele>
<time>2022-09-14T08:38:32.172Z</time>
</trkpt>
<trkpt lat="31.7668200" lon="35.1575000">
<ele>565.100037</ele>
<time>2022-09-14T08:38:32.172Z</time>
</trkpt>
<trkpt lat="31.7667000" lon="35.1577400">
<ele>568.010010</ele>
<time>2022-09-14T08:38:32.172Z</time>
</trkpt>
<trkpt lat="31.7665400" lon="35.1579800">
<ele>575.169983</ele>
<time>2022-09-14T08:38:32.172Z</time>
</trkpt>
<trkpt lat="31.7665300" lon="35.1580100">
<ele>575.979980</ele>
<time>2022-09-14T08:38:32.172Z</time>
</trkpt>
<trkpt lat="31.7664700" lon="35.1580300">
<ele>577.320007</ele>
<time>2022-09-14T08:38:32.172Z</time>
</trkpt>
<trkpt lat="31.7664300" lon="35.1580500">
<ele>578.299988</ele>
<time>2022-09-14T08:38:32.172Z</time>
</trkpt>
<trkpt lat="31.7664300" lon="35.1580500">
<ele>578.299988</ele>
<time>2022-09-14T08:38:32.172Z</time>
</trkpt>
<trkpt lat="31.7659700" lon="35.1581300">
<ele>600.630005</ele>
<time>2022-09-14T08:38:32.172Z</time>
</trkpt>
<trkpt lat="31.7655000" lon="35.1582100">
<ele>623.309998</ele>
<time>2022-09-14T08:38:32.172Z</time>
</trkpt>
<trkpt lat="31.7650400" lon="35.1582900">
<ele>645.649963</ele>
<time>2022-09-14T08:38:32.172Z</time>
</trkpt>
<trkpt lat="31.7645700" lon="35.1583700">
<ele>656.949951</ele>
<time>2022-09-14T08:38:32.172Z</time>
</trkpt>
<trkpt lat="31.7641100" lon="35.1584500">
<ele>663.029968</ele>
<time>2022-09-14T08:38:32.172Z</time>
</trkpt>
<trkpt lat="31.7636500" lon="35.1585300">
<ele>678.880005</ele>
<time>2022-09-14T08:38:32.172Z</time>
</trkpt>
<trkpt lat="31.7631800" lon="35.1586000">
<ele>693.049988</ele>
<time>2022-09-14T08:38:32.172Z</time>
</trkpt>
<trkpt lat="31.7627200" lon="35.1586800">
<ele>700.669983</ele>
<time>2022-09-14T08:38:32.172Z</time>
</trkpt>
<trkpt lat="31.7622600" lon="35.1587600">
<ele>707.519958</ele>
<time>2022-09-14T08:38:32.172Z</time>
</trkpt>
<trkpt lat="31.7617900" lon="35.1588400">
<ele>711.809998</ele>
<time>2022-09-14T08:38:32.172Z</time>
</trkpt>
<trkpt lat="31.7613300" lon="35.1589200">
<ele>724.580017</ele>
<time>2022-09-14T08:38:32.172Z</time>
</trkpt>
<trkpt lat="31.7608600" lon="35.1590000">
<ele>725.669983</ele>
<time>2022-09-14T08:38:32.172Z</time>
</trkpt>
<trkpt lat="31.7604000" lon="35.1590800">
<ele>732.590027</ele>
<time>2022-09-14T08:38:32.172Z</time>
</trkpt>
<trkpt lat="31.7604000" lon="35.1590800">
<ele>732.590027</ele>
<time>2022-09-14T08:38:32.172Z</time>
</trkpt>
<trkpt lat="31.7599400" lon="35.1591600">
<ele>736.420044</ele>
<time>2022-09-14T08:38:32.172Z</time>
</trkpt>
<trkpt lat="31.7594700" lon="35.1592300">
<ele>741.740051</ele>
<time>2022-09-14T08:38:32.172Z</time>
</trkpt>
<trkpt lat="31.7590100" lon="35.1593100">
<ele>745.019958</ele>
<time>2022-09-14T08:38:32.172Z</time>
</trkpt>
<trkpt lat="31.7585500" lon="35.1593800">
<ele>753.859985</ele>
<time>2022-09-14T08:38:32.172Z</time>
</trkpt>
<trkpt lat="31.7580800" lon="35.1594600">
<ele>768.190002</ele>
<time>2022-09-14T08:38:32.172Z</time>
</trkpt>
<trkpt lat="31.7576200" lon="35.1595300">
<ele>774.690002</ele>
<time>2022-09-14T08:38:32.172Z</time>
</trkpt>
<trkpt lat="31.7571500" lon="35.1596100">
<ele>777.520020</ele>
<time>2022-09-14T08:38:32.172Z</time>
</trkpt>
<trkpt lat="31.7566900" lon="35.1596800">
<ele>778.010010</ele>
<time>2022-09-14T08:38:32.172Z</time>
</trkpt>
<trkpt lat="31.7562300" lon="35.1597600">
<ele>772.469971</ele>
<time>2022-09-14T08:38:32.172Z</time>
</trkpt>
<trkpt lat="31.7557600" lon="35.1598300">
<ele>770.349976</ele>
<time>2022-09-14T08:38:32.172Z</time>
</trkpt>
<trkpt lat="31.7553000" lon="35.1599100">
<ele>769.130005</ele>
<time>2022-09-14T08:38:32.172Z</time>
</trkpt>
<trkpt lat="31.7548400" lon="35.1599800">
<ele>765.609985</ele>
<time>2022-09-14T08:38:32.172Z</time>
</trkpt>
<trkpt lat="31.7543700" lon="35.1600600">
<ele>765.080017</ele>
<time>2022-09-14T08:38:32.172Z</time>
</trkpt>
<trkpt lat="31.7539100" lon="35.1601300">
<ele>755.250000</ele>
<time>2022-09-14T08:38:32.172Z</time>
</trkpt>
<trkpt lat="31.7534400" lon="35.1602100">
<ele>743.500000</ele>
<time>2022-09-14T08:38:32.172Z</time>
</trkpt>
<trkpt lat="31.7529800" lon="35.1602800">
<ele>733.639954</ele>
<time>2022-09-14T08:38:32.172Z</time>
</trkpt>
<trkpt lat="31.7529800" lon="35.1602800">
<ele>733.639954</ele>
<time>2022-09-14T08:38:32.172Z</time>
</trkpt>
<trkpt lat="31.7525200" lon="35.1603600">
<ele>727.239990</ele>
<time>2022-09-14T08:38:32.172Z</time>
</trkpt>
<trkpt lat="31.7520500" lon="35.1604300">
<ele>720.400024</ele>
<time>2022-09-14T08:38:32.172Z</time>
</trkpt>
<trkpt lat="31.7515900" lon="35.1605100">
<ele>712.029968</ele>
<time>2022-09-14T08:38:32.172Z</time>
</trkpt>
<trkpt lat="31.7511300" lon="35.1605800">
<ele>702.880066</ele>
<time>2022-09-14T08:38:32.172Z</time>
</trkpt>
<trkpt lat="31.7506600" lon="35.1606600">
<ele>689.390015</ele>
<time>2022-09-14T08:38:32.172Z</time>
</trkpt>
<trkpt lat="31.7502000" lon="35.1607300">
<ele>680.650024</ele>
<time>2022-09-14T08:38:32.172Z</time>
</trkpt>
<trkpt lat="31.7497300" lon="35.1608100">
<ele>669.969971</ele>
<time>2022-09-14T08:38:32.172Z</time>
</trkpt>
<trkpt lat="31.7492700" lon="35.1608800">
<ele>660.289978</ele>
<time>2022-09-14T08:38:32.172Z</time>
</trkpt>
<trkpt lat="31.7488100" lon="35.1609600">
<ele>651.010010</ele>
<time>2022-09-14T08:38:32.172Z</time>
</trkpt>
<trkpt lat="31.7483400" lon="35.1610300">
<ele>637.789978</ele>
<time>2022-09-14T08:38:32.172Z</time>
</trkpt>
<trkpt lat="31.7478800" lon="35.1611100">
<ele>626.589966</ele>
<time>2022-09-14T08:38:32.172Z</time>
</trkpt>
<trkpt lat="31.7478800" lon="35.1611100">
<ele>626.589966</ele>
<time>2022-09-14T08:38:32.172Z</time>
</trkpt>
<trkpt lat="31.7475300" lon="35.1611500">
<ele>617.100037</ele>
<time>2022-09-14T08:38:32.172Z</time>
</trkpt>
<trkpt lat="31.7475300" lon="35.1611500">
<ele>617.100037</ele>
<time>2022-09-14T08:38:32.172Z</time>
</trkpt>
<trkpt lat="31.7471100" lon="35.1615800">
<ele>620.289978</ele>
<time>2022-09-14T08:38:32.172Z</time>
</trkpt>
<trkpt lat="31.7471100" lon="35.1615800">
<ele>620.289978</ele>
<time>2022-09-14T08:38:32.172Z</time>
</trkpt>
<trkpt lat="31.7466900" lon="35.1622800">
<ele>627.409973</ele>
<time>2022-09-14T08:38:32.172Z</time>
</trkpt>
<trkpt lat="31.7466900" lon="35.1622800">
<ele>627.409973</ele>
<time>2022-09-14T08:38:32.172Z</time>
</trkpt>
<trkpt lat="31.7465400" lon="35.1626300">
<ele>629.890015</ele>
<time>2022-09-14T08:38:32.172Z</time>
</trkpt>
<trkpt lat="31.7465400" lon="35.1626300">
<ele>629.890015</ele>
<time>2022-09-14T08:38:32.172Z</time>
</trkpt>
<trkpt lat="31.7464100" lon="35.1629000">
<ele>631.590027</ele>
<time>2022-09-14T08:38:32.172Z</time>
</trkpt>
<trkpt lat="31.7464100" lon="35.1629000">
<ele>631.590027</ele>
<time>2022-09-14T08:38:32.172Z</time>
</trkpt>
<trkpt lat="31.7462400" lon="35.1633300">
<ele>630.669983</ele>
<time>2022-09-14T08:38:32.172Z</time>
</trkpt>
<trkpt lat="31.7462400" lon="35.1633300">
<ele>630.669983</ele>
<time>2022-09-14T08:38:32.172Z</time>
</trkpt>
<trkpt lat="31.7462300" lon="35.1633900">
<ele>630.890015</ele>
<time>2022-09-14T08:38:32.172Z</time>
</trkpt>
<trkpt lat="31.7462300" lon="35.1633900">
<ele>630.890015</ele>
<time>2022-09-14T08:38:32.172Z</time>
</trkpt>
<trkpt lat="31.7461300" lon="35.1634700">
<ele>629.380005</ele>
<time>2022-09-14T08:38:32.172Z</time>
</trkpt>
<trkpt lat="31.7461300" lon="35.1634700">
<ele>629.380005</ele>
<time>2022-09-14T08:38:32.172Z</time>
</trkpt>
<trkpt lat="31.7460600" lon="35.1634100">
<ele>627.020020</ele>
<time>2022-09-14T08:38:32.172Z</time>
</trkpt>
<trkpt lat="31.7460600" lon="35.1634100">
<ele>627.020020</ele>
<time>2022-09-14T08:38:32.172Z</time>
</trkpt>
<trkpt lat="31.7460000" lon="35.1634200">
<ele>625.950012</ele>
<time>2022-09-14T08:38:32.172Z</time>
</trkpt>
<trkpt lat="31.7460000" lon="35.1634200">
<ele>625.950012</ele>
<time>2022-09-14T08:38:32.172Z</time>
</trkpt>
<trkpt lat="31.7459800" lon="35.1634400">
<ele>625.960022</ele>
<time>2022-09-14T08:38:32.172Z</time>
</trkpt>
<trkpt lat="31.7459600" lon="35.1634600">
<ele>626.010010</ele>
<time>2022-09-14T08:38:32.172Z</time>
</trkpt>
<trkpt lat="31.7459400" lon="35.1635000">
<ele>626.570007</ele>
<time>2022-09-14T08:38:32.172Z</time>
</trkpt>
<trkpt lat="31.7459400" lon="35.1635400">
<ele>627.500000</ele>
<time>2022-09-14T08:38:32.172Z</time>
</trkpt>
<trkpt lat="31.7459500" lon="35.1635800">
<ele>628.549988</ele>
<time>2022-09-14T08:38:32.172Z</time>
</trkpt>
<trkpt lat="31.7459200" lon="35.1636000">
<ele>628.670044</ele>
<time>2022-09-14T08:38:32.172Z</time>
</trkpt>
<trkpt lat="31.7458800" lon="35.1635600">
<ele>627.160034</ele>
<time>2022-09-14T08:38:32.172Z</time>
</trkpt>
<trkpt lat="31.7445000" lon="35.1649600">
<ele>630.650024</ele>
<time>2022-09-14T08:38:32.172Z</time>
</trkpt>
<trkpt lat="31.7443100" lon="35.1651700">
<ele>632.240051</ele>
<time>2022-09-14T08:38:32.172Z</time>
</trkpt>
<trkpt lat="31.7442100" lon="35.1653300">
<ele>632.750000</ele>
<time>2022-09-14T08:38:32.172Z</time>
</trkpt>
<trkpt lat="31.7441100" lon="35.1655200">
<ele>632.929993</ele>
<time>2022-09-14T08:38:32.172Z</time>
</trkpt>
<trkpt lat="31.7440000" lon="35.1658100">
<ele>634.900024</ele>
<time>2022-09-14T08:38:32.172Z</time>
</trkpt>
<trkpt lat="31.7439400" lon="35.1659900">
<ele>635.889954</ele>
<time>2022-09-14T08:38:32.172Z</time>
</trkpt>
<trkpt lat="31.7439100" lon="35.1661300">
<ele>636.459961</ele>
<time>2022-09-14T08:38:32.172Z</time>
</trkpt>
<trkpt lat="31.7438900" lon="35.1662400">
<ele>636.489990</ele>
<time>2022-09-14T08:38:32.172Z</time>
</trkpt>
<trkpt lat="31.7438800" lon="35.1664100">
<ele>636.919983</ele>
<time>2022-09-14T08:38:32.172Z</time>
</trkpt>
<trkpt lat="31.7438700" lon="35.1666400">
<ele>637.630005</ele>
<time>2022-09-14T08:38:32.172Z</time>
</trkpt>
<trkpt lat="31.7438700" lon="35.1667500">
<ele>637.729980</ele>
<time>2022-09-14T08:38:32.172Z</time>
</trkpt>
<trkpt lat="31.7438700" lon="35.1669100">
<ele>637.729980</ele>
<time>2022-09-14T08:38:32.172Z</time>
</trkpt>
<trkpt lat="31.7438700" lon="35.1670100">
<ele>637.729980</ele>
<time>2022-09-14T08:38:32.172Z</time>
</trkpt>
<trkpt lat="31.7438600" lon="35.1674100">
<ele>638.119995</ele>
<time>2022-09-14T08:38:32.172Z</time>
</trkpt>
<trkpt lat="31.7438400" lon="35.1677500">
<ele>638.099976</ele>
<time>2022-09-14T08:38:32.172Z</time>
</trkpt>
<trkpt lat="31.7437800" lon="35.1681700">
<ele>637.059998</ele>
<time>2022-09-14T08:38:32.172Z</time>
</trkpt>
<trkpt lat="31.7436200" lon="35.1689400">
<ele>635.330017</ele>
<time>2022-09-14T08:38:32.172Z</time>
</trkpt>
<trkpt lat="31.7436000" lon="35.1691200">
<ele>634.789978</ele>
<time>2022-09-14T08:38:32.172Z</time>
</trkpt>
<trkpt lat="31.7435900" lon="35.1691700">
<ele>634.650024</ele>
<time>2022-09-14T08:38:32.172Z</time>
</trkpt>
<trkpt lat="31.7435800" lon="35.1693100">
<ele>635.869995</ele>
<time>2022-09-14T08:38:32.172Z</time>
</trkpt>
<trkpt lat="31.7434900" lon="35.1701700">
<ele>640.200012</ele>
<time>2022-09-14T08:38:32.172Z</time>
</trkpt>
<trkpt lat="31.7435000" lon="35.1704400">
<ele>639.320007</ele>
<time>2022-09-14T08:38:32.172Z</time>
</trkpt>
<trkpt lat="31.7436000" lon="35.1709400">
<ele>639.349976</ele>
<time>2022-09-14T08:38:32.172Z</time>
</trkpt>
<trkpt lat="31.7436100" lon="35.1712000">
<ele>638.660034</ele>
<time>2022-09-14T08:38:32.172Z</time>
</trkpt>
<trkpt lat="31.7435500" lon="35.1718700">
<ele>637.819946</ele>
<time>2022-09-14T08:38:32.172Z</time>
</trkpt>
<trkpt lat="31.7435400" lon="35.1720700">
<ele>638.740051</ele>
<time>2022-09-14T08:38:32.172Z</time>
</trkpt>
<trkpt lat="31.7435600" lon="35.1721100">
<ele>639.609985</ele>
<time>2022-09-14T08:38:32.172Z</time>
</trkpt>
<trkpt lat="31.7436400" lon="35.1721400">
<ele>642.000061</ele>
<time>2022-09-14T08:38:32.172Z</time>
</trkpt>
<trkpt lat="31.7436300" lon="35.1722500">
<ele>642.530029</ele>
<time>2022-09-14T08:38:32.172Z</time>
</trkpt>
<trkpt lat="31.7436300" lon="35.1724800">
<ele>643.529968</ele>
<time>2022-09-14T08:38:32.172Z</time>
</trkpt>
<trkpt lat="31.7435700" lon="35.1739300">
<ele>644.690002</ele>
<time>2022-09-14T08:38:32.172Z</time>
</trkpt>
<trkpt lat="31.7437000" lon="35.1746100">
<ele>644.260010</ele>
<time>2022-09-14T08:38:32.172Z</time>
</trkpt>
<trkpt lat="31.7437500" lon="35.1747800">
<ele>643.789978</ele>
<time>2022-09-14T08:38:32.172Z</time>
</trkpt>
<trkpt lat="31.7438100" lon="35.1749400">
<ele>644.510010</ele>
<time>2022-09-14T08:38:32.172Z</time>
</trkpt>
<trkpt lat="31.7439000" lon="35.1751000">
<ele>645.450012</ele>
<time>2022-09-14T08:38:32.172Z</time>
</trkpt>
<trkpt lat="31.7441700" lon="35.1755900">
<ele>644.099976</ele>
<time>2022-09-14T08:38:32.172Z</time>
</trkpt>
<trkpt lat="31.7442800" lon="35.1757300">
<ele>646.390015</ele>
<time>2022-09-14T08:38:32.172Z</time>
</trkpt>
<trkpt lat="31.7445300" lon="35.1759200">
<ele>646.840027</ele>
<time>2022-09-14T08:38:32.172Z</time>
</trkpt>
<trkpt lat="31.7445800" lon="35.1759900">
<ele>645.869995</ele>
<time>2022-09-14T08:38:32.172Z</time>
</trkpt>
<trkpt lat="31.7447600" lon="35.1762200">
<ele>643.809998</ele>
<time>2022-09-14T08:38:32.172Z</time>
</trkpt>
<trkpt lat="31.7449200" lon="35.1764200">
<ele>643.719971</ele>
<time>2022-09-14T08:38:32.172Z</time>
</trkpt>
<trkpt lat="31.7450000" lon="35.1765400">
<ele>645.000061</ele>
<time>2022-09-14T08:38:32.172Z</time>
</trkpt>
<trkpt lat="31.7450200" lon="35.1765900">
<ele>645.070007</ele>
<time>2022-09-14T08:38:32.172Z</time>
</trkpt>
<trkpt lat="31.7450300" lon="35.1766100">
<ele>645.110046</ele>
<time>2022-09-14T08:38:32.172Z</time>
</trkpt>
<trkpt lat="31.7451200" lon="35.1768600">
<ele>643.949951</ele>
<time>2022-09-14T08:38:32.172Z</time>
</trkpt>
<trkpt lat="31.7451400" lon="35.1769800">
<ele>643.320007</ele>
<time>2022-09-14T08:38:32.172Z</time>
</trkpt>
<trkpt lat="31.7451500" lon="35.1770400">
<ele>643.089966</ele>
<time>2022-09-14T08:38:32.172Z</time>
</trkpt>
<trkpt lat="31.7451600" lon="35.1771700">
<ele>642.450012</ele>
<time>2022-09-14T08:38:32.172Z</time>
</trkpt>
<trkpt lat="31.7453000" lon="35.1770000">
<ele>644.870056</ele>
<time>2022-09-14T08:38:32.172Z</time>
</trkpt>
<trkpt lat="31.7453000" lon="35.1770000">
<ele>644.870056</ele>
<time>2022-09-14T08:38:32.172Z</time>
</trkpt>
<trkpt lat="31.7452900" lon="35.1767500">
<ele>645.770020</ele>
<time>2022-09-14T08:38:32.172Z</time>
</trkpt>
<trkpt lat="31.7451900" lon="35.1764000">
<ele>645.680054</ele>
<time>2022-09-14T08:38:32.172Z</time>
</trkpt>
<trkpt lat="31.7451000" lon="35.1762600">
<ele>645.950012</ele>
<time>2022-09-14T08:38:32.172Z</time>
</trkpt>
<trkpt lat="31.7450000" lon="35.1761200">
<ele>646.940002</ele>
<time>2022-09-14T08:38:32.172Z</time>
</trkpt>
<trkpt lat="31.7446900" lon="35.1758400">
<ele>649.650024</ele>
<time>2022-09-14T08:38:32.172Z</time>
</trkpt>
<trkpt lat="31.7445800" lon="35.1759900">
<ele>645.869995</ele>
<time>2022-09-14T08:38:32.172Z</time>
</trkpt>
<trkpt lat="31.7445300" lon="35.1759200">
<ele>646.840027</ele>
<time>2022-09-14T08:38:32.172Z</time>
</trkpt>
<trkpt lat="31.7442800" lon="35.1757300">
<ele>646.390015</ele>
<time>2022-09-14T08:38:32.172Z</time>
</trkpt>
<trkpt lat="31.7441700" lon="35.1755900">
<ele>644.099976</ele>
<time>2022-09-14T08:38:32.172Z</time>
</trkpt>
<trkpt lat="31.7439000" lon="35.1751000">
<ele>645.450012</ele>
<time>2022-09-14T08:38:32.172Z</time>
</trkpt>
<trkpt lat="31.7438100" lon="35.1749400">
<ele>644.510010</ele>
<time>2022-09-14T08:38:32.172Z</time>
</trkpt>
<trkpt lat="31.7437500" lon="35.1747800">
<ele>643.789978</ele>
<time>2022-09-14T08:38:32.172Z</time>
</trkpt>
<trkpt lat="31.7437000" lon="35.1746100">
<ele>644.260010</ele>
<time>2022-09-14T08:38:32.172Z</time>
</trkpt>
<trkpt lat="31.7435700" lon="35.1739300">
<ele>644.690002</ele>
<time>2022-09-14T08:38:32.172Z</time>
</trkpt>
<trkpt lat="31.7436300" lon="35.1724800">
<ele>643.529968</ele>
<time>2022-09-14T08:38:32.172Z</time>
</trkpt>
<trkpt lat="31.7436300" lon="35.1722500">
<ele>642.530029</ele>
<time>2022-09-14T08:38:32.172Z</time>
</trkpt>
<trkpt lat="31.7436400" lon="35.1721400">
<ele>642.000061</ele>
<time>2022-09-14T08:38:32.172Z</time>
</trkpt>
<trkpt lat="31.7435600" lon="35.1721100">
<ele>639.609985</ele>
<time>2022-09-14T08:38:32.172Z</time>
</trkpt>
<trkpt lat="31.7435400" lon="35.1720700">
<ele>638.740051</ele>
<time>2022-09-14T08:38:32.172Z</time>
</trkpt>
<trkpt lat="31.7435500" lon="35.1718700">
<ele>637.819946</ele>
<time>2022-09-14T08:38:32.172Z</time>
</trkpt>
<trkpt lat="31.7436100" lon="35.1712000">
<ele>638.660034</ele>
<time>2022-09-14T08:38:32.172Z</time>
</trkpt>
<trkpt lat="31.7436000" lon="35.1709400">
<ele>639.349976</ele>
<time>2022-09-14T08:38:32.172Z</time>
</trkpt>
<trkpt lat="31.7435000" lon="35.1704400">
<ele>639.320007</ele>
<time>2022-09-14T08:38:32.172Z</time>
</trkpt>
<trkpt lat="31.7434900" lon="35.1701700">
<ele>640.200012</ele>
<time>2022-09-14T08:38:32.172Z</time>
</trkpt>
<trkpt lat="31.7435800" lon="35.1693100">
<ele>635.869995</ele>
<time>2022-09-14T08:38:32.172Z</time>
</trkpt>
<trkpt lat="31.7435900" lon="35.1691700">
<ele>634.650024</ele>
<time>2022-09-14T08:38:32.172Z</time>
</trkpt>
<trkpt lat="31.7436000" lon="35.1691200">
<ele>634.789978</ele>
<time>2022-09-14T08:38:32.172Z</time>
</trkpt>
<trkpt lat="31.7436200" lon="35.1689400">
<ele>635.330017</ele>
<time>2022-09-14T08:38:32.172Z</time>
</trkpt>
<trkpt lat="31.7437800" lon="35.1681700">
<ele>637.059998</ele>
<time>2022-09-14T08:38:32.172Z</time>
</trkpt>
<trkpt lat="31.7438400" lon="35.1677500">
<ele>638.099976</ele>
<time>2022-09-14T08:38:32.172Z</time>
</trkpt>
<trkpt lat="31.7438600" lon="35.1674100">
<ele>638.119995</ele>
<time>2022-09-14T08:38:32.172Z</time>
</trkpt>
<trkpt lat="31.7438700" lon="35.1670100">
<ele>637.729980</ele>
<time>2022-09-14T08:38:32.172Z</time>
</trkpt>
<trkpt lat="31.7438700" lon="35.1669100">
<ele>637.729980</ele>
<time>2022-09-14T08:38:32.172Z</time>
</trkpt>
<trkpt lat="31.7438700" lon="35.1667500">
<ele>637.729980</ele>
<time>2022-09-14T08:38:32.172Z</time>
</trkpt>
<trkpt lat="31.7438700" lon="35.1666400">
<ele>637.630005</ele>
<time>2022-09-14T08:38:32.172Z</time>
</trkpt>
<trkpt lat="31.7438800" lon="35.1664100">
<ele>636.919983</ele>
<time>2022-09-14T08:38:32.172Z</time>
</trkpt>
<trkpt lat="31.7438900" lon="35.1662400">
<ele>636.489990</ele>
<time>2022-09-14T08:38:32.172Z</time>
</trkpt>
<trkpt lat="31.7439100" lon="35.1661300">
<ele>636.459961</ele>
<time>2022-09-14T08:38:32.172Z</time>
</trkpt>
<trkpt lat="31.7439400" lon="35.1659900">
<ele>635.889954</ele>
<time>2022-09-14T08:38:32.172Z</time>
</trkpt>
<trkpt lat="31.7440000" lon="35.1658100">
<ele>634.900024</ele>
<time>2022-09-14T08:38:32.172Z</time>
</trkpt>
<trkpt lat="31.7441100" lon="35.1655200">
<ele>632.929993</ele>
<time>2022-09-14T08:38:32.172Z</time>
</trkpt>
<trkpt lat="31.7442100" lon="35.1653300">
<ele>632.750000</ele>
<time>2022-09-14T08:38:32.172Z</time>
</trkpt>
<trkpt lat="31.7443100" lon="35.1651700">
<ele>632.240051</ele>
<time>2022-09-14T08:38:32.172Z</time>
</trkpt>
<trkpt lat="31.7445000" lon="35.1649600">
<ele>630.650024</ele>
<time>2022-09-14T08:38:32.172Z</time>
</trkpt>
<trkpt lat="31.7458800" lon="35.1635600">
<ele>627.160034</ele>
<time>2022-09-14T08:38:32.172Z</time>
</trkpt>
<trkpt lat="31.7459200" lon="35.1636000">
<ele>628.670044</ele>
<time>2022-09-14T08:38:32.172Z</time>
</trkpt>
<trkpt lat="31.7459500" lon="35.1635800">
<ele>628.549988</ele>
<time>2022-09-14T08:38:32.172Z</time>
</trkpt>
<trkpt lat="31.7459700" lon="35.1636100">
<ele>629.450012</ele>
<time>2022-09-14T08:38:32.172Z</time>
</trkpt>
<trkpt lat="31.7460000" lon="35.1636300">
<ele>630.039978</ele>
<time>2022-09-14T08:38:32.172Z</time>
</trkpt>
<trkpt lat="31.7460300" lon="35.1636500">
<ele>630.639954</ele>
<time>2022-09-14T08:38:32.172Z</time>
</trkpt>
<trkpt lat="31.7460600" lon="35.1636400">
<ele>630.840027</ele>
<time>2022-09-14T08:38:32.172Z</time>
</trkpt>
<trkpt lat="31.7460900" lon="35.1636300">
<ele>631.040039</ele>
<time>2022-09-14T08:38:32.172Z</time>
</trkpt>
<trkpt lat="31.7461100" lon="35.1636100">
<ele>630.970032</ele>
<time>2022-09-14T08:38:32.172Z</time>
</trkpt>
<trkpt lat="31.7461300" lon="35.1635800">
<ele>630.849976</ele>
<time>2022-09-14T08:38:32.172Z</time>
</trkpt>
<trkpt lat="31.7461400" lon="35.1635400">
<ele>630.500000</ele>
<time>2022-09-14T08:38:32.172Z</time>
</trkpt>
<trkpt lat="31.7461400" lon="35.1635100">
<ele>630.109985</ele>
<time>2022-09-14T08:38:32.172Z</time>
</trkpt>
<trkpt lat="31.7461300" lon="35.1634700">
<ele>629.380005</ele>
<time>2022-09-14T08:38:32.172Z</time>
</trkpt>
<trkpt lat="31.7462500" lon="35.1633700">
<ele>631.260010</ele>
<time>2022-09-14T08:38:32.172Z</time>
</trkpt>
<trkpt lat="31.7463600" lon="35.1632800">
<ele>633.879944</ele>
<time>2022-09-14T08:38:32.172Z</time>
</trkpt>
<trkpt lat="31.7464500" lon="35.1631400">
<ele>635.119995</ele>
<time>2022-09-14T08:38:32.172Z</time>
</trkpt>
<trkpt lat="31.7464500" lon="35.1631400">
<ele>635.119995</ele>
<time>2022-09-14T08:38:32.172Z</time>
</trkpt>
<trkpt lat="31.7464500" lon="35.1631400">
<ele>635.119995</ele>
<time>2022-09-14T08:38:32.172Z</time>
</trkpt>
<trkpt lat="31.7464700" lon="35.1631100">
<ele>635.309998</ele>
<time>2022-09-14T08:38:32.172Z</time>
</trkpt>
<trkpt lat="31.7467000" lon="35.1625600">
<ele>632.129944</ele>
<time>2022-09-14T08:38:32.172Z</time>
</trkpt>
<trkpt lat="31.7470600" lon="35.1619800">
<ele>629.469971</ele>
<time>2022-09-14T08:38:32.172Z</time>
</trkpt>
<trkpt lat="31.7471600" lon="35.1618800">
<ele>627.559998</ele>
<time>2022-09-14T08:38:32.172Z</time>
</trkpt>
<trkpt lat="31.7472600" lon="35.1618200">
<ele>626.240051</ele>
<time>2022-09-14T08:38:32.172Z</time>
</trkpt>
<trkpt lat="31.7475700" lon="35.1616800">
<ele>624.549988</ele>
<time>2022-09-14T08:38:32.172Z</time>
</trkpt>
<trkpt lat="31.7481300" lon="35.1615100">
<ele>633.860046</ele>
<time>2022-09-14T08:38:32.172Z</time>
</trkpt>
<trkpt lat="31.7482300" lon="35.1614400">
<ele>635.880005</ele>
<time>2022-09-14T08:38:32.172Z</time>
</trkpt>
<trkpt lat="31.7482700" lon="35.1613500">
<ele>636.299988</ele>
<time>2022-09-14T08:38:32.172Z</time>
</trkpt>
<trkpt lat="31.7482500" lon="35.1612600">
<ele>635.580017</ele>
<time>2022-09-14T08:38:32.172Z</time>
</trkpt>
<trkpt lat="31.7479300" lon="35.1608500">
<ele>631.510010</ele>
<time>2022-09-14T08:38:32.172Z</time>
</trkpt>
<trkpt lat="31.7478500" lon="35.1607100">
<ele>631.070007</ele>
<time>2022-09-14T08:38:32.172Z</time>
</trkpt>
<trkpt lat="31.7478300" lon="35.1606000">
<ele>631.460022</ele>
<time>2022-09-14T08:38:32.172Z</time>
</trkpt>
<trkpt lat="31.7478500" lon="35.1604400">
<ele>631.729980</ele>
<time>2022-09-14T08:38:32.172Z</time>
</trkpt>
<trkpt lat="31.7479100" lon="35.1602400">
<ele>632.039978</ele>
<time>2022-09-14T08:38:32.172Z</time>
</trkpt>
<trkpt lat="31.7479900" lon="35.1601400">
<ele>632.450012</ele>
<time>2022-09-14T08:38:32.172Z</time>
</trkpt>
<trkpt lat="31.7480400" lon="35.1600900">
<ele>632.729980</ele>
<time>2022-09-14T08:38:32.172Z</time>
</trkpt>
<trkpt lat="31.7480900" lon="35.1600400">
<ele>632.570007</ele>
<time>2022-09-14T08:38:32.172Z</time>
</trkpt>
<trkpt lat="31.7483000" lon="35.1598900">
<ele>632.779968</ele>
<time>2022-09-14T08:38:32.172Z</time>
</trkpt>
<trkpt lat="31.7483900" lon="35.1598100">
<ele>633.600037</ele>
<time>2022-09-14T08:38:32.172Z</time>
</trkpt>
<trkpt lat="31.7484700" lon="35.1596900">
<ele>633.979980</ele>
<time>2022-09-14T08:38:32.172Z</time>
</trkpt>
<trkpt lat="31.7484800" lon="35.1596500">
<ele>634.070007</ele>
<time>2022-09-14T08:38:32.172Z</time>
</trkpt>
<trkpt lat="31.7484800" lon="35.1595300">
<ele>634.089966</ele>
<time>2022-09-14T08:38:32.172Z</time>
</trkpt>
<trkpt lat="31.7484400" lon="35.1594300">
<ele>633.899963</ele>
<time>2022-09-14T08:38:32.172Z</time>
</trkpt>
<trkpt lat="31.7483200" lon="35.1593100">
<ele>635.220032</ele>
<time>2022-09-14T08:38:32.172Z</time>
</trkpt>
<trkpt lat="31.7479500" lon="35.1590200">
<ele>638.159973</ele>
<time>2022-09-14T08:38:32.172Z</time>
</trkpt>
<trkpt lat="31.7476800" lon="35.1588500">
<ele>636.760010</ele>
<time>2022-09-14T08:38:32.172Z</time>
</trkpt>
<trkpt lat="31.7476100" lon="35.1587800">
<ele>636.329956</ele>
<time>2022-09-14T08:38:32.172Z</time>
</trkpt>
<trkpt lat="31.7473500" lon="35.1583700">
<ele>631.479980</ele>
<time>2022-09-14T08:38:32.172Z</time>
</trkpt>
<trkpt lat="31.7473300" lon="35.1582600">
<ele>630.580017</ele>
<time>2022-09-14T08:38:32.172Z</time>
</trkpt>
<trkpt lat="31.7473200" lon="35.1581200">
<ele>629.279968</ele>
<time>2022-09-14T08:38:32.172Z</time>
</trkpt>
<trkpt lat="31.7473400" lon="35.1579300">
<ele>628.679993</ele>
<time>2022-09-14T08:38:32.172Z</time>
</trkpt>
<trkpt lat="31.7474100" lon="35.1577700">
<ele>630.089966</ele>
<time>2022-09-14T08:38:32.172Z</time>
</trkpt>
<trkpt lat="31.7475800" lon="35.1575100">
<ele>635.889954</ele>
<time>2022-09-14T08:38:32.172Z</time>
</trkpt>
<trkpt lat="31.7475900" lon="35.1574100">
<ele>636.780029</ele>
<time>2022-09-14T08:38:32.172Z</time>
</trkpt>
<trkpt lat="31.7475700" lon="35.1573600">
<ele>636.400024</ele>
<time>2022-09-14T08:38:32.172Z</time>
</trkpt>
<trkpt lat="31.7475100" lon="35.1573100">
<ele>634.700012</ele>
<time>2022-09-14T08:38:32.172Z</time>
</trkpt>
<trkpt lat="31.7473400" lon="35.1572700">
<ele>630.520020</ele>
<time>2022-09-14T08:38:32.172Z</time>
</trkpt>
<trkpt lat="31.7469700" lon="35.1571100">
<ele>631.040039</ele>
<time>2022-09-14T08:38:32.172Z</time>
</trkpt>
<trkpt lat="31.7468700" lon="35.1570100">
<ele>632.020020</ele>
<time>2022-09-14T08:38:32.172Z</time>
</trkpt>
<trkpt lat="31.7466900" lon="35.1566800">
<ele>634.510010</ele>
<time>2022-09-14T08:38:32.172Z</time>
</trkpt>
<trkpt lat="31.7465800" lon="35.1565400">
<ele>635.150024</ele>
<time>2022-09-14T08:38:32.172Z</time>
</trkpt>
<trkpt lat="31.7464800" lon="35.1564400">
<ele>635.150024</ele>
<time>2022-09-14T08:38:32.172Z</time>
</trkpt>
<trkpt lat="31.7460300" lon="35.1561200">
<ele>630.239990</ele>
<time>2022-09-14T08:38:32.172Z</time>
</trkpt>
<trkpt lat="31.7456400" lon="35.1557800">
<ele>636.359985</ele>
<time>2022-09-14T08:38:32.172Z</time>
</trkpt>
<trkpt lat="31.7450900" lon="35.1551800">
<ele>645.519958</ele>
<time>2022-09-14T08:38:32.172Z</time>
</trkpt>
<trkpt lat="31.7448400" lon="35.1549300">
<ele>643.500000</ele>
<time>2022-09-14T08:38:32.172Z</time>
</trkpt>
<trkpt lat="31.7446000" lon="35.1547200">
<ele>639.050049</ele>
<time>2022-09-14T08:38:32.172Z</time>
</trkpt>
<trkpt lat="31.7444600" lon="35.1545600">
<ele>634.599976</ele>
<time>2022-09-14T08:38:32.172Z</time>
</trkpt>
<trkpt lat="31.7443700" lon="35.1543600">
<ele>631.269958</ele>
<time>2022-09-14T08:38:32.172Z</time>
</trkpt>
<trkpt lat="31.7443400" lon="35.1541500">
<ele>628.009949</ele>
<time>2022-09-14T08:38:32.172Z</time>
</trkpt>
<trkpt lat="31.7443200" lon="35.1539000">
<ele>624.010010</ele>
<time>2022-09-14T08:38:32.172Z</time>
</trkpt>
<trkpt lat="31.7443400" lon="35.1538000">
<ele>624.490051</ele>
<time>2022-09-14T08:38:32.172Z</time>
</trkpt>
<trkpt lat="31.7443700" lon="35.1537300">
<ele>625.280029</ele>
<time>2022-09-14T08:38:32.172Z</time>
</trkpt>
<trkpt lat="31.7445500" lon="35.1533200">
<ele>634.100037</ele>
<time>2022-09-14T08:38:32.172Z</time>
</trkpt>
<trkpt lat="31.7445600" lon="35.1532400">
<ele>635.559998</ele>
<time>2022-09-14T08:38:32.172Z</time>
</trkpt>
<trkpt lat="31.7445600" lon="35.1531900">
<ele>636.169983</ele>
<time>2022-09-14T08:38:32.172Z</time>
</trkpt>
<trkpt lat="31.7445200" lon="35.1531200">
<ele>635.049988</ele>
<time>2022-09-14T08:38:32.172Z</time>
</trkpt>
<trkpt lat="31.7444300" lon="35.1530700">
<ele>631.430054</ele>
<time>2022-09-14T08:38:32.172Z</time>
</trkpt>
<trkpt lat="31.7443400" lon="35.1530600">
<ele>628.949951</ele>
<time>2022-09-14T08:38:32.172Z</time>
</trkpt>
<trkpt lat="31.7441900" lon="35.1530800">
<ele>624.490051</ele>
<time>2022-09-14T08:38:32.172Z</time>
</trkpt>
<trkpt lat="31.7439000" lon="35.1531800">
<ele>619.989990</ele>
<time>2022-09-14T08:38:32.172Z</time>
</trkpt>
<trkpt lat="31.7438000" lon="35.1532000">
<ele>618.570007</ele>
<time>2022-09-14T08:38:32.172Z</time>
</trkpt>
<trkpt lat="31.7437600" lon="35.1532100">
<ele>617.969971</ele>
<time>2022-09-14T08:38:32.172Z</time>
</trkpt>
<trkpt lat="31.7436000" lon="35.1532100">
<ele>616.679993</ele>
<time>2022-09-14T08:38:32.172Z</time>
</trkpt>
<trkpt lat="31.7430300" lon="35.1531200">
<ele>624.479980</ele>
<time>2022-09-14T08:38:32.172Z</time>
</trkpt>
<trkpt lat="31.7428600" lon="35.1529900">
<ele>628.700012</ele>
<time>2022-09-14T08:38:32.172Z</time>
</trkpt>
<trkpt lat="31.7426800" lon="35.1529300">
<ele>629.580017</ele>
<time>2022-09-14T08:38:32.172Z</time>
</trkpt>
<trkpt lat="31.7425200" lon="35.1528600">
<ele>630.739990</ele>
<time>2022-09-14T08:38:32.172Z</time>
</trkpt>
<trkpt lat="31.7422700" lon="35.1525900">
<ele>634.260010</ele>
<time>2022-09-14T08:38:32.172Z</time>
</trkpt>
<trkpt lat="31.7421100" lon="35.1524700">
<ele>634.960022</ele>
<time>2022-09-14T08:38:32.172Z</time>
</trkpt>
<trkpt lat="31.7418400" lon="35.1523500">
<ele>635.580017</ele>
<time>2022-09-14T08:38:32.172Z</time>
</trkpt>
<trkpt lat="31.7417700" lon="35.1523200">
<ele>635.559998</ele>
<time>2022-09-14T08:38:32.172Z</time>
</trkpt>
<trkpt lat="31.7415200" lon="35.1521300">
<ele>638.289978</ele>
<time>2022-09-14T08:38:32.172Z</time>
</trkpt>
<trkpt lat="31.7413500" lon="35.1519500">
<ele>640.479980</ele>
<time>2022-09-14T08:38:32.172Z</time>
</trkpt>
<trkpt lat="31.7410300" lon="35.1515500">
<ele>646.269958</ele>
<time>2022-09-14T08:38:32.172Z</time>
</trkpt>
<trkpt lat="31.7407900" lon="35.1511900">
<ele>648.940063</ele>
<time>2022-09-14T08:38:32.172Z</time>
</trkpt>
<trkpt lat="31.7407400" lon="35.1511000">
<ele>649.210022</ele>
<time>2022-09-14T08:38:32.172Z</time>
</trkpt>
<trkpt lat="31.7404200" lon="35.1502900">
<ele>649.429993</ele>
<time>2022-09-14T08:38:32.172Z</time>
</trkpt>
<trkpt lat="31.7403100" lon="35.1501200">
<ele>649.520020</ele>
<time>2022-09-14T08:38:32.172Z</time>
</trkpt>
<trkpt lat="31.7401100" lon="35.1499100">
<ele>648.429993</ele>
<time>2022-09-14T08:38:32.172Z</time>
</trkpt>
<trkpt lat="31.7400300" lon="35.1497800">
<ele>647.419983</ele>
<time>2022-09-14T08:38:32.172Z</time>
</trkpt>
<trkpt lat="31.7399400" lon="35.1497100">
<ele>646.340027</ele>
<time>2022-09-14T08:38:32.172Z</time>
</trkpt>
<trkpt lat="31.7399100" lon="35.1493800">
<ele>645.090027</ele>
<time>2022-09-14T08:38:32.172Z</time>
</trkpt>
<trkpt lat="31.7399100" lon="35.1493300">
<ele>644.610046</ele>
<time>2022-09-14T08:38:32.172Z</time>
</trkpt>
<trkpt lat="31.7399400" lon="35.1491700">
<ele>643.729980</ele>
<time>2022-09-14T08:38:32.172Z</time>
</trkpt>
<trkpt lat="31.7400100" lon="35.1489800">
<ele>643.190002</ele>
<time>2022-09-14T08:38:32.172Z</time>
</trkpt>
<trkpt lat="31.7401500" lon="35.1487800">
<ele>642.770020</ele>
<time>2022-09-14T08:38:32.172Z</time>
</trkpt>
<trkpt lat="31.7404600" lon="35.1484700">
<ele>644.029968</ele>
<time>2022-09-14T08:38:32.172Z</time>
</trkpt>
<trkpt lat="31.7407300" lon="35.1481000">
<ele>641.049988</ele>
<time>2022-09-14T08:38:32.172Z</time>
</trkpt>
<trkpt lat="31.7409900" lon="35.1478200">
<ele>640.470032</ele>
<time>2022-09-14T08:38:32.172Z</time>
</trkpt>
<trkpt lat="31.7411500" lon="35.1476700">
<ele>640.320007</ele>
<time>2022-09-14T08:38:32.172Z</time>
</trkpt>
<trkpt lat="31.7412900" lon="35.1475000">
<ele>638.640015</ele>
<time>2022-09-14T08:38:32.172Z</time>
</trkpt>
<trkpt lat="31.7414100" lon="35.1473600">
<ele>638.989990</ele>
<time>2022-09-14T08:38:32.172Z</time>
</trkpt>
<trkpt lat="31.7414700" lon="35.1473100">
<ele>640.049988</ele>
<time>2022-09-14T08:38:32.172Z</time>
</trkpt>
<trkpt lat="31.7413700" lon="35.1471600">
<ele>638.469971</ele>
<time>2022-09-14T08:38:32.172Z</time>
</trkpt>
<trkpt lat="31.7413400" lon="35.1471400">
<ele>638.359985</ele>
<time>2022-09-14T08:38:32.172Z</time>
</trkpt>
<trkpt lat="31.7410300" lon="35.1470400">
<ele>637.830017</ele>
<time>2022-09-14T08:38:32.172Z</time>
</trkpt>
<trkpt lat="31.7404200" lon="35.1469900">
<ele>638.790039</ele>
<time>2022-09-14T08:38:32.172Z</time>
</trkpt>
<trkpt lat="31.7402100" lon="35.1470200">
<ele>637.809998</ele>
<time>2022-09-14T08:38:32.172Z</time>
</trkpt>
<trkpt lat="31.7399200" lon="35.1470800">
<ele>637.619995</ele>
<time>2022-09-14T08:38:32.172Z</time>
</trkpt>
<trkpt lat="31.7397100" lon="35.1471000">
<ele>636.919983</ele>
<time>2022-09-14T08:38:32.172Z</time>
</trkpt>
<trkpt lat="31.7395300" lon="35.1470800">
<ele>635.169983</ele>
<time>2022-09-14T08:38:32.172Z</time>
</trkpt>
<trkpt lat="31.7393100" lon="35.1471000">
<ele>635.299988</ele>
<time>2022-09-14T08:38:32.172Z</time>
</trkpt>
<trkpt lat="31.7391500" lon="35.1470200">
<ele>638.830017</ele>
<time>2022-09-14T08:38:32.172Z</time>
</trkpt>
<trkpt lat="31.7387600" lon="35.1467800">
<ele>650.319946</ele>
<time>2022-09-14T08:38:32.172Z</time>
</trkpt>
<trkpt lat="31.7384300" lon="35.1466400">
<ele>655.149963</ele>
<time>2022-09-14T08:38:32.172Z</time>
</trkpt>
<trkpt lat="31.7382000" lon="35.1465000">
<ele>657.580017</ele>
<time>2022-09-14T08:38:32.172Z</time>
</trkpt>
<trkpt lat="31.7381200" lon="35.1464200">
<ele>658.409973</ele>
<time>2022-09-14T08:38:32.172Z</time>
</trkpt>
<trkpt lat="31.7379300" lon="35.1461600">
<ele>661.589966</ele>
<time>2022-09-14T08:38:32.172Z</time>
</trkpt>
<trkpt lat="31.7378500" lon="35.1460900">
<ele>661.180054</ele>
<time>2022-09-14T08:38:32.172Z</time>
</trkpt>
<trkpt lat="31.7377800" lon="35.1460400">
<ele>660.090027</ele>
<time>2022-09-14T08:38:32.172Z</time>
</trkpt>
<trkpt lat="31.7377200" lon="35.1460100">
<ele>660.250000</ele>
<time>2022-09-14T08:38:32.172Z</time>
</trkpt>
<trkpt lat="31.7373900" lon="35.1460000">
<ele>660.000000</ele>
<time>2022-09-14T08:38:32.172Z</time>
</trkpt>
<trkpt lat="31.7371500" lon="35.1459200">
<ele>660.570007</ele>
<time>2022-09-14T08:38:32.172Z</time>
</trkpt>
<trkpt lat="31.7370600" lon="35.1458500">
<ele>660.830017</ele>
<time>2022-09-14T08:38:32.172Z</time>
</trkpt>
<trkpt lat="31.7368600" lon="35.1456700">
<ele>659.460022</ele>
<time>2022-09-14T08:38:32.172Z</time>
</trkpt>
<trkpt lat="31.7366200" lon="35.1452900">
<ele>657.119995</ele>
<time>2022-09-14T08:38:32.172Z</time>
</trkpt>
<trkpt lat="31.7361800" lon="35.1446800">
<ele>653.579956</ele>
<time>2022-09-14T08:38:32.172Z</time>
</trkpt>
<trkpt lat="31.7357400" lon="35.1442700">
<ele>654.039978</ele>
<time>2022-09-14T08:38:32.172Z</time>
</trkpt>
<trkpt lat="31.7357000" lon="35.1442400">
<ele>653.900024</ele>
<time>2022-09-14T08:38:32.172Z</time>
</trkpt>
<trkpt lat="31.7356300" lon="35.1440900">
<ele>654.549988</ele>
<time>2022-09-14T08:38:32.172Z</time>
</trkpt>
<trkpt lat="31.7355700" lon="35.1437600">
<ele>654.739990</ele>
<time>2022-09-14T08:38:32.172Z</time>
</trkpt>
<trkpt lat="31.7355600" lon="35.1435900">
<ele>654.309998</ele>
<time>2022-09-14T08:38:32.172Z</time>
</trkpt>
<trkpt lat="31.7356200" lon="35.1432100">
<ele>658.919983</ele>
<time>2022-09-14T08:38:32.172Z</time>
</trkpt>
<trkpt lat="31.7355900" lon="35.1425800">
<ele>661.169983</ele>
<time>2022-09-14T08:38:32.172Z</time>
</trkpt>
<trkpt lat="31.7355300" lon="35.1422900">
<ele>663.700012</ele>
<time>2022-09-14T08:38:32.172Z</time>
</trkpt>
<trkpt lat="31.7353200" lon="35.1415200">
<ele>663.469971</ele>
<time>2022-09-14T08:38:32.172Z</time>
</trkpt>
<trkpt lat="31.7352700" lon="35.1412300">
<ele>662.930054</ele>
<time>2022-09-14T08:38:32.172Z</time>
</trkpt>
<trkpt lat="31.7352100" lon="35.1407200">
<ele>659.269958</ele>
<time>2022-09-14T08:38:32.172Z</time>
</trkpt>
<trkpt lat="31.7352200" lon="35.1406000">
<ele>657.469971</ele>
<time>2022-09-14T08:38:32.172Z</time>
</trkpt>
<trkpt lat="31.7352400" lon="35.1405200">
<ele>655.950012</ele>
<time>2022-09-14T08:38:32.172Z</time>
</trkpt>
<trkpt lat="31.7353400" lon="35.1404000">
<ele>654.299988</ele>
<time>2022-09-14T08:38:32.172Z</time>
</trkpt>
<trkpt lat="31.7354100" lon="35.1403800">
<ele>655.130005</ele>
<time>2022-09-14T08:38:32.172Z</time>
</trkpt>
<trkpt lat="31.7356300" lon="35.1404000">
<ele>659.359985</ele>
<time>2022-09-14T08:38:32.172Z</time>
</trkpt>
<trkpt lat="31.7358800" lon="35.1403900">
<ele>662.159973</ele>
<time>2022-09-14T08:38:32.172Z</time>
</trkpt>
<trkpt lat="31.7362200" lon="35.1403300">
<ele>666.060059</ele>
<time>2022-09-14T08:38:32.172Z</time>
</trkpt>
<trkpt lat="31.7364200" lon="35.1403000">
<ele>666.850037</ele>
<time>2022-09-14T08:38:32.172Z</time>
</trkpt>
<trkpt lat="31.7365600" lon="35.1402500">
<ele>666.640015</ele>
<time>2022-09-14T08:38:32.172Z</time>
</trkpt>
<trkpt lat="31.7368200" lon="35.1401200">
<ele>663.330017</ele>
<time>2022-09-14T08:38:32.172Z</time>
</trkpt>
<trkpt lat="31.7369800" lon="35.1400200">
<ele>661.829956</ele>
<time>2022-09-14T08:38:32.172Z</time>
</trkpt>
<trkpt lat="31.7370500" lon="35.1400000">
<ele>663.040039</ele>
<time>2022-09-14T08:38:32.172Z</time>
</trkpt>
<trkpt lat="31.7381400" lon="35.1397400">
<ele>671.010010</ele>
<time>2022-09-14T08:38:32.172Z</time>
</trkpt>
<trkpt lat="31.7384600" lon="35.1395300">
<ele>667.880005</ele>
<time>2022-09-14T08:38:32.172Z</time>
</trkpt>
<trkpt lat="31.7385200" lon="35.1394300">
<ele>664.169983</ele>
<time>2022-09-14T08:38:32.172Z</time>
</trkpt>
<trkpt lat="31.7386800" lon="35.1392600">
<ele>659.269958</ele>
<time>2022-09-14T08:38:32.172Z</time>
</trkpt>
<trkpt lat="31.7387800" lon="35.1391300">
<ele>657.020020</ele>
<time>2022-09-14T08:38:32.172Z</time>
</trkpt>
<trkpt lat="31.7388600" lon="35.1389000">
<ele>651.859985</ele>
<time>2022-09-14T08:38:32.172Z</time>
</trkpt>
<trkpt lat="31.7388600" lon="35.1388600">
<ele>651.589966</ele>
<time>2022-09-14T08:38:32.172Z</time>
</trkpt>
<trkpt lat="31.7388400" lon="35.1386900">
<ele>651.959961</ele>
<time>2022-09-14T08:38:32.172Z</time>
</trkpt>
<trkpt lat="31.7384800" lon="35.1381000">
<ele>652.150024</ele>
<time>2022-09-14T08:38:32.172Z</time>
</trkpt>
<trkpt lat="31.7384600" lon="35.1379200">
<ele>654.649963</ele>
<time>2022-09-14T08:38:32.172Z</time>
</trkpt>
<trkpt lat="31.7384000" lon="35.1377600">
<ele>654.939941</ele>
<time>2022-09-14T08:38:32.172Z</time>
</trkpt>
<trkpt lat="31.7383900" lon="35.1374600">
<ele>654.609985</ele>
<time>2022-09-14T08:38:32.172Z</time>
</trkpt>
<trkpt lat="31.7384200" lon="35.1371200">
<ele>653.440002</ele>
<time>2022-09-14T08:38:32.172Z</time>
</trkpt>
<trkpt lat="31.7385300" lon="35.1366600">
<ele>655.899963</ele>
<time>2022-09-14T08:38:32.172Z</time>
</trkpt>
<trkpt lat="31.7385400" lon="35.1364000">
<ele>656.170044</ele>
<time>2022-09-14T08:38:32.172Z</time>
</trkpt>
<trkpt lat="31.7386400" lon="35.1359900">
<ele>659.070007</ele>
<time>2022-09-14T08:38:32.172Z</time>
</trkpt>
<trkpt lat="31.7386500" lon="35.1356900">
<ele>661.059998</ele>
<time>2022-09-14T08:38:32.172Z</time>
</trkpt>
<trkpt lat="31.7386400" lon="35.1353100">
<ele>662.630005</ele>
<time>2022-09-14T08:38:32.172Z</time>
</trkpt>
<trkpt lat="31.7385200" lon="35.1330000">
<ele>666.700012</ele>
<time>2022-09-14T08:38:32.172Z</time>
</trkpt>
<trkpt lat="31.7385800" lon="35.1326500">
<ele>665.059998</ele>
<time>2022-09-14T08:38:32.172Z</time>
</trkpt>
<trkpt lat="31.7392000" lon="35.1318800">
<ele>657.330017</ele>
<time>2022-09-14T08:38:32.172Z</time>
</trkpt>
<trkpt lat="31.7393100" lon="35.1318600">
<ele>660.419983</ele>
<time>2022-09-14T08:38:32.172Z</time>
</trkpt>
<trkpt lat="31.7394000" lon="35.1318700">
<ele>663.309998</ele>
<time>2022-09-14T08:38:32.172Z</time>
</trkpt>
<trkpt lat="31.7395400" lon="35.1319200">
<ele>669.159973</ele>
<time>2022-09-14T08:38:32.172Z</time>
</trkpt>
<trkpt lat="31.7397300" lon="35.1320300">
<ele>679.240051</ele>
<time>2022-09-14T08:38:32.172Z</time>
</trkpt>
<trkpt lat="31.7398000" lon="35.1320800">
<ele>681.260010</ele>
<time>2022-09-14T08:38:32.172Z</time>
</trkpt>
<trkpt lat="31.7400300" lon="35.1322500">
<ele>687.009949</ele>
<time>2022-09-14T08:38:32.172Z</time>
</trkpt>
<trkpt lat="31.7401900" lon="35.1322500">
<ele>686.550049</ele>
<time>2022-09-14T08:38:32.172Z</time>
</trkpt>
<trkpt lat="31.7402900" lon="35.1323000">
<ele>686.719971</ele>
<time>2022-09-14T08:38:32.172Z</time>
</trkpt>
<trkpt lat="31.7411600" lon="35.1329800">
<ele>684.770020</ele>
<time>2022-09-14T08:38:32.172Z</time>
</trkpt>
<trkpt lat="31.7412600" lon="35.1330400">
<ele>684.609985</ele>
<time>2022-09-14T08:38:32.172Z</time>
</trkpt>
<trkpt lat="31.7413600" lon="35.1330900">
<ele>685.580017</ele>
<time>2022-09-14T08:38:32.172Z</time>
</trkpt>
<trkpt lat="31.7416900" lon="35.1332400">
<ele>672.020020</ele>
<time>2022-09-14T08:38:32.172Z</time>
</trkpt>
<trkpt lat="31.7420800" lon="35.1333200">
<ele>662.940002</ele>
<time>2022-09-14T08:38:32.172Z</time>
</trkpt>
<trkpt lat="31.7425100" lon="35.1333600">
<ele>654.909973</ele>
<time>2022-09-14T08:38:32.172Z</time>
</trkpt>
<trkpt lat="31.7431600" lon="35.1333700">
<ele>654.160034</ele>
<time>2022-09-14T08:38:32.172Z</time>
</trkpt>
<trkpt lat="31.7433100" lon="35.1333900">
<ele>657.339966</ele>
<time>2022-09-14T08:38:32.172Z</time>
</trkpt>
<trkpt lat="31.7433800" lon="35.1333800">
<ele>658.510010</ele>
<time>2022-09-14T08:38:32.172Z</time>
</trkpt>
<trkpt lat="31.7434500" lon="35.1333600">
<ele>659.479980</ele>
<time>2022-09-14T08:38:32.172Z</time>
</trkpt>
<trkpt lat="31.7435000" lon="35.1333000">
<ele>659.880005</ele>
<time>2022-09-14T08:38:32.172Z</time>
</trkpt>
<trkpt lat="31.7435400" lon="35.1331900">
<ele>660.200012</ele>
<time>2022-09-14T08:38:32.172Z</time>
</trkpt>
<trkpt lat="31.7435200" lon="35.1330600">
<ele>659.380005</ele>
<time>2022-09-14T08:38:32.172Z</time>
</trkpt>
<trkpt lat="31.7434500" lon="35.1327800">
<ele>657.370056</ele>
<time>2022-09-14T08:38:32.172Z</time>
</trkpt>
<trkpt lat="31.7434100" lon="35.1324900">
<ele>653.500000</ele>
<time>2022-09-14T08:38:32.172Z</time>
</trkpt>
<trkpt lat="31.7433900" lon="35.1320200">
<ele>647.909973</ele>
<time>2022-09-14T08:38:32.172Z</time>
</trkpt>
<trkpt lat="31.7434100" lon="35.1317700">
<ele>645.699951</ele>
<time>2022-09-14T08:38:32.172Z</time>
</trkpt>
<trkpt lat="31.7434800" lon="35.1313500">
<ele>641.390015</ele>
<time>2022-09-14T08:38:32.172Z</time>
</trkpt>
<trkpt lat="31.7435400" lon="35.1311500">
<ele>638.519958</ele>
<time>2022-09-14T08:38:32.172Z</time>
</trkpt>
<trkpt lat="31.7436200" lon="35.1309600">
<ele>635.350037</ele>
<time>2022-09-14T08:38:32.172Z</time>
</trkpt>
<trkpt lat="31.7437500" lon="35.1307500">
<ele>632.149963</ele>
<time>2022-09-14T08:38:32.172Z</time>
</trkpt>
<trkpt lat="31.7439100" lon="35.1305300">
<ele>629.760010</ele>
<time>2022-09-14T08:38:32.172Z</time>
</trkpt>
<trkpt lat="31.7441500" lon="35.1303300">
<ele>625.579956</ele>
<time>2022-09-14T08:38:32.172Z</time>
</trkpt>
<trkpt lat="31.7447400" lon="35.1300200">
<ele>611.119995</ele>
<time>2022-09-14T08:38:32.172Z</time>
</trkpt>
<trkpt lat="31.7449800" lon="35.1299100">
<ele>610.840027</ele>
<time>2022-09-14T08:38:32.172Z</time>
</trkpt>
<trkpt lat="31.7452200" lon="35.1298500">
<ele>611.710022</ele>
<time>2022-09-14T08:38:32.172Z</time>
</trkpt>
<trkpt lat="31.7454000" lon="35.1298300">
<ele>612.869995</ele>
<time>2022-09-14T08:38:32.172Z</time>
</trkpt>
<trkpt lat="31.7455400" lon="35.1298400">
<ele>614.400024</ele>
<time>2022-09-14T08:38:32.172Z</time>
</trkpt>
<trkpt lat="31.7457900" lon="35.1298000">
<ele>615.229980</ele>
<time>2022-09-14T08:38:32.172Z</time>
</trkpt>
<trkpt lat="31.7464500" lon="35.1294400">
<ele>602.630005</ele>
<time>2022-09-14T08:38:32.172Z</time>
</trkpt>
<trkpt lat="31.7467300" lon="35.1293600">
<ele>605.850037</ele>
<time>2022-09-14T08:38:32.172Z</time>
</trkpt>
<trkpt lat="31.7470100" lon="35.1293200">
<ele>611.650024</ele>
<time>2022-09-14T08:38:32.172Z</time>
</trkpt>
<trkpt lat="31.7470800" lon="35.1292900">
<ele>612.650024</ele>
<time>2022-09-14T08:38:32.172Z</time>
</trkpt>
<trkpt lat="31.7471600" lon="35.1292000">
<ele>612.549988</ele>
<time>2022-09-14T08:38:32.172Z</time>
</trkpt>
<trkpt lat="31.7472000" lon="35.1290900">
<ele>612.029968</ele>
<time>2022-09-14T08:38:32.172Z</time>
</trkpt>
<trkpt lat="31.7472100" lon="35.1289200">
<ele>610.959961</ele>
<time>2022-09-14T08:38:32.172Z</time>
</trkpt>
<trkpt lat="31.7471800" lon="35.1284900">
<ele>607.450012</ele>
<time>2022-09-14T08:38:32.172Z</time>
</trkpt>
<trkpt lat="31.7471900" lon="35.1282400">
<ele>604.780029</ele>
<time>2022-09-14T08:38:32.172Z</time>
</trkpt>
<trkpt lat="31.7472300" lon="35.1280800">
<ele>602.619995</ele>
<time>2022-09-14T08:38:32.172Z</time>
</trkpt>
<trkpt lat="31.7473100" lon="35.1279300">
<ele>602.399963</ele>
<time>2022-09-14T08:38:32.172Z</time>
</trkpt>
<trkpt lat="31.7473500" lon="35.1277800">
<ele>601.330017</ele>
<time>2022-09-14T08:38:32.172Z</time>
</trkpt>
<trkpt lat="31.7472800" lon="35.1276200">
<ele>600.840027</ele>
<time>2022-09-14T08:38:32.172Z</time>
</trkpt>
<trkpt lat="31.7471700" lon="35.1275300">
<ele>599.850037</ele>
<time>2022-09-14T08:38:32.172Z</time>
</trkpt>
<trkpt lat="31.7469300" lon="35.1273800">
<ele>601.299988</ele>
<time>2022-09-14T08:38:32.172Z</time>
</trkpt>
<trkpt lat="31.7465200" lon="35.1270700">
<ele>600.530029</ele>
<time>2022-09-14T08:38:32.172Z</time>
</trkpt>
<trkpt lat="31.7462700" lon="35.1269200">
<ele>598.000000</ele>
<time>2022-09-14T08:38:32.172Z</time>
</trkpt>
<trkpt lat="31.7461500" lon="35.1268100">
<ele>596.250000</ele>
<time>2022-09-14T08:38:32.172Z</time>
</trkpt>
<trkpt lat="31.7460800" lon="35.1267200">
<ele>595.250000</ele>
<time>2022-09-14T08:38:32.172Z</time>
</trkpt>
<trkpt lat="31.7460200" lon="35.1266000">
<ele>593.640015</ele>
<time>2022-09-14T08:38:32.172Z</time>
</trkpt>
<trkpt lat="31.7459900" lon="35.1264900">
<ele>591.720032</ele>
<time>2022-09-14T08:38:32.172Z</time>
</trkpt>
<trkpt lat="31.7459700" lon="35.1263400">
<ele>589.229980</ele>
<time>2022-09-14T08:38:32.172Z</time>
</trkpt>
<trkpt lat="31.7460900" lon="35.1257700">
<ele>585.519958</ele>
<time>2022-09-14T08:38:32.172Z</time>
</trkpt>
<trkpt lat="31.7460800" lon="35.1256800">
<ele>585.399963</ele>
<time>2022-09-14T08:38:32.172Z</time>
</trkpt>
<trkpt lat="31.7460100" lon="35.1255300">
<ele>585.030029</ele>
<time>2022-09-14T08:38:32.172Z</time>
</trkpt>
<trkpt lat="31.7459200" lon="35.1254300">
<ele>585.340027</ele>
<time>2022-09-14T08:38:32.172Z</time>
</trkpt>
<trkpt lat="31.7459200" lon="35.1254300">
<ele>585.340027</ele>
<time>2022-09-14T08:38:32.172Z</time>
</trkpt>
<trkpt lat="31.7459200" lon="35.1254300">
<ele>585.340027</ele>
<time>2022-09-14T08:38:32.172Z</time>
</trkpt>
<trkpt lat="31.7458700" lon="35.1253600">
<ele>585.529968</ele>
<time>2022-09-14T08:38:32.172Z</time>
</trkpt>
<trkpt lat="31.7458000" lon="35.1252200">
<ele>585.890015</ele>
<time>2022-09-14T08:38:32.172Z</time>
</trkpt>
<trkpt lat="31.7457000" lon="35.1248400">
<ele>585.419983</ele>
<time>2022-09-14T08:38:32.172Z</time>
</trkpt>
<trkpt lat="31.7455700" lon="35.1244700">
<ele>583.320007</ele>
<time>2022-09-14T08:38:32.172Z</time>
</trkpt>
<trkpt lat="31.7453900" lon="35.1238000">
<ele>577.040039</ele>
<time>2022-09-14T08:38:32.172Z</time>
</trkpt>
<trkpt lat="31.7451100" lon="35.1231200">
<ele>570.010010</ele>
<time>2022-09-14T08:38:32.172Z</time>
</trkpt>
<trkpt lat="31.7450500" lon="35.1229500">
<ele>568.489990</ele>
<time>2022-09-14T08:38:32.172Z</time>
</trkpt>
<trkpt lat="31.7450000" lon="35.1227200">
<ele>568.210022</ele>
<time>2022-09-14T08:38:32.172Z</time>
</trkpt>
<trkpt lat="31.7449800" lon="35.1224000">
<ele>568.880005</ele>
<time>2022-09-14T08:38:32.172Z</time>
</trkpt>
<trkpt lat="31.7449400" lon="35.1222900">
<ele>568.409973</ele>
<time>2022-09-14T08:38:32.172Z</time>
</trkpt>
<trkpt lat="31.7448400" lon="35.1221600">
<ele>567.760010</ele>
<time>2022-09-14T08:38:32.172Z</time>
</trkpt>
<trkpt lat="31.7443000" lon="35.1217500">
<ele>568.700012</ele>
<time>2022-09-14T08:38:32.172Z</time>
</trkpt>
<trkpt lat="31.7437800" lon="35.1212700">
<ele>558.510010</ele>
<time>2022-09-14T08:38:32.172Z</time>
</trkpt>
<trkpt lat="31.7435700" lon="35.1210500">
<ele>557.510010</ele>
<time>2022-09-14T08:38:32.172Z</time>
</trkpt>
<trkpt lat="31.7429800" lon="35.1203700">
<ele>546.549988</ele>
<time>2022-09-14T08:38:32.172Z</time>
</trkpt>
<trkpt lat="31.7429000" lon="35.1203300">
<ele>543.959961</ele>
<time>2022-09-14T08:38:32.172Z</time>
</trkpt>
<trkpt lat="31.7424000" lon="35.1201900">
<ele>541.239990</ele>
<time>2022-09-14T08:38:32.172Z</time>
</trkpt>
<trkpt lat="31.7421600" lon="35.1200900">
<ele>539.909973</ele>
<time>2022-09-14T08:38:32.172Z</time>
</trkpt>
<trkpt lat="31.7419100" lon="35.1199400">
<ele>539.739990</ele>
<time>2022-09-14T08:38:32.172Z</time>
</trkpt>
<trkpt lat="31.7415000" lon="35.1197500">
<ele>537.179993</ele>
<time>2022-09-14T08:38:32.172Z</time>
</trkpt>
<trkpt lat="31.7407500" lon="35.1194400">
<ele>527.470032</ele>
<time>2022-09-14T08:38:32.172Z</time>
</trkpt>
<trkpt lat="31.7402700" lon="35.1192900">
<ele>531.839966</ele>
<time>2022-09-14T08:38:32.172Z</time>
</trkpt>
<trkpt lat="31.7399400" lon="35.1192500">
<ele>528.349976</ele>
<time>2022-09-14T08:38:32.172Z</time>
</trkpt>
<trkpt lat="31.7395000" lon="35.1191600">
<ele>518.039978</ele>
<time>2022-09-14T08:38:32.172Z</time>
</trkpt>
<trkpt lat="31.7387400" lon="35.1190400">
<ele>508.020020</ele>
<time>2022-09-14T08:38:32.172Z</time>
</trkpt>
<trkpt lat="31.7369500" lon="35.1188400">
<ele>508.209991</ele>
<time>2022-09-14T08:38:32.172Z</time>
</trkpt>
<trkpt lat="31.7367400" lon="35.1187900">
<ele>507.309998</ele>
<time>2022-09-14T08:38:32.172Z</time>
</trkpt>
<trkpt lat="31.7363000" lon="35.1185700">
<ele>500.950012</ele>
<time>2022-09-14T08:38:32.172Z</time>
</trkpt>
<trkpt lat="31.7364300" lon="35.1177800">
<ele>506.730011</ele>
<time>2022-09-14T08:38:32.172Z</time>
</trkpt>
<trkpt lat="31.7365200" lon="35.1175300">
<ele>508.410004</ele>
<time>2022-09-14T08:38:32.172Z</time>
</trkpt>
<trkpt lat="31.7366100" lon="35.1173400">
<ele>507.779968</ele>
<time>2022-09-14T08:38:32.172Z</time>
</trkpt>
<trkpt lat="31.7372400" lon="35.1163800">
<ele>514.599976</ele>
<time>2022-09-14T08:38:32.172Z</time>
</trkpt>
<trkpt lat="31.7373300" lon="35.1161900">
<ele>516.330017</ele>
<time>2022-09-14T08:38:32.172Z</time>
</trkpt>
<trkpt lat="31.7375900" lon="35.1154700">
<ele>516.859985</ele>
<time>2022-09-14T08:38:32.172Z</time>
</trkpt>
<trkpt lat="31.7376200" lon="35.1151200">
<ele>514.690002</ele>
<time>2022-09-14T08:38:32.172Z</time>
</trkpt>
<trkpt lat="31.7376700" lon="35.1148200">
<ele>513.559998</ele>
<time>2022-09-14T08:38:32.172Z</time>
</trkpt>
<trkpt lat="31.7378400" lon="35.1143000">
<ele>514.010010</ele>
<time>2022-09-14T08:38:32.172Z</time>
</trkpt>
<trkpt lat="31.7379900" lon="35.1139700">
<ele>514.059998</ele>
<time>2022-09-14T08:38:32.172Z</time>
</trkpt>
<trkpt lat="31.7381500" lon="35.1136900">
<ele>514.989990</ele>
<time>2022-09-14T08:38:32.172Z</time>
</trkpt>
<trkpt lat="31.7383800" lon="35.1133300">
<ele>513.770020</ele>
<time>2022-09-14T08:38:32.172Z</time>
</trkpt>
<trkpt lat="31.7387800" lon="35.1129100">
<ele>513.470032</ele>
<time>2022-09-14T08:38:32.172Z</time>
</trkpt>
<trkpt lat="31.7391400" lon="35.1126300">
<ele>509.329987</ele>
<time>2022-09-14T08:38:32.172Z</time>
</trkpt>
<trkpt lat="31.7395000" lon="35.1124500">
<ele>505.550018</ele>
<time>2022-09-14T08:38:32.172Z</time>
</trkpt>
<trkpt lat="31.7402800" lon="35.1121500">
<ele>507.260010</ele>
<time>2022-09-14T08:38:32.172Z</time>
</trkpt>
<trkpt lat="31.7405800" lon="35.1120200">
<ele>510.730011</ele>
<time>2022-09-14T08:38:32.172Z</time>
</trkpt>
<trkpt lat="31.7408200" lon="35.1118900">
<ele>514.690002</ele>
<time>2022-09-14T08:38:32.172Z</time>
</trkpt>
<trkpt lat="31.7409600" lon="35.1118000">
<ele>516.119995</ele>
<time>2022-09-14T08:38:32.172Z</time>
</trkpt>
<trkpt lat="31.7412900" lon="35.1115200">
<ele>519.080017</ele>
<time>2022-09-14T08:38:32.172Z</time>
</trkpt>
<trkpt lat="31.7417000" lon="35.1111300">
<ele>523.400024</ele>
<time>2022-09-14T08:38:32.172Z</time>
</trkpt>
<trkpt lat="31.7417700" lon="35.1110600">
<ele>525.159973</ele>
<time>2022-09-14T08:38:32.172Z</time>
</trkpt>
<trkpt lat="31.7419400" lon="35.1107700">
<ele>529.399963</ele>
<time>2022-09-14T08:38:32.172Z</time>
</trkpt>
<trkpt lat="31.7421300" lon="35.1103600">
<ele>532.770020</ele>
<time>2022-09-14T08:38:32.172Z</time>
</trkpt>
<trkpt lat="31.7423100" lon="35.1097700">
<ele>533.429993</ele>
<time>2022-09-14T08:38:32.172Z</time>
</trkpt>
<trkpt lat="31.7424400" lon="35.1089900">
<ele>531.000000</ele>
<time>2022-09-14T08:38:32.172Z</time>
</trkpt>
<trkpt lat="31.7424700" lon="35.1089000">
<ele>530.500000</ele>
<time>2022-09-14T08:38:32.172Z</time>
</trkpt>
<trkpt lat="31.7425200" lon="35.1088300">
<ele>530.010010</ele>
<time>2022-09-14T08:38:32.172Z</time>
</trkpt>
<trkpt lat="31.7426200" lon="35.1088000">
<ele>529.829956</ele>
<time>2022-09-14T08:38:32.172Z</time>
</trkpt>
<trkpt lat="31.7428000" lon="35.1088200">
<ele>530.779968</ele>
<time>2022-09-14T08:38:32.172Z</time>
</trkpt>
<trkpt lat="31.7428200" lon="35.1088300">
<ele>530.970032</ele>
<time>2022-09-14T08:38:32.172Z</time>
</trkpt>
<trkpt lat="31.7428200" lon="35.1088300">
<ele>530.970032</ele>
<time>2022-09-14T08:38:32.172Z</time>
</trkpt>
<trkpt lat="31.7428200" lon="35.1088300">
<ele>530.970032</ele>
<time>2022-09-14T08:38:32.172Z</time>
</trkpt>
<trkpt lat="31.7430800" lon="35.1089400">
<ele>532.809998</ele>
<time>2022-09-14T08:38:32.172Z</time>
</trkpt>
<trkpt lat="31.7434600" lon="35.1091800">
<ele>533.769958</ele>
<time>2022-09-14T08:38:32.172Z</time>
</trkpt>
<trkpt lat="31.7435800" lon="35.1092300">
<ele>535.099976</ele>
<time>2022-09-14T08:38:32.172Z</time>
</trkpt>
<trkpt lat="31.7436500" lon="35.1092100">
<ele>535.580017</ele>
<time>2022-09-14T08:38:32.172Z</time>
</trkpt>
<trkpt lat="31.7437300" lon="35.1091100">
<ele>536.280029</ele>
<time>2022-09-14T08:38:32.172Z</time>
</trkpt>
<trkpt lat="31.7437800" lon="35.1090000">
<ele>536.679993</ele>
<time>2022-09-14T08:38:32.172Z</time>
</trkpt>
<trkpt lat="31.7438500" lon="35.1087500">
<ele>537.230042</ele>
<time>2022-09-14T08:38:32.172Z</time>
</trkpt>
<trkpt lat="31.7438900" lon="35.1086200">
<ele>538.030029</ele>
<time>2022-09-14T08:38:32.172Z</time>
</trkpt>
<trkpt lat="31.7439500" lon="35.1085200">
<ele>538.919983</ele>
<time>2022-09-14T08:38:32.172Z</time>
</trkpt>
<trkpt lat="31.7440400" lon="35.1083100">
<ele>538.500000</ele>
<time>2022-09-14T08:38:32.172Z</time>
</trkpt>
<trkpt lat="31.7441200" lon="35.1081000">
<ele>537.959961</ele>
<time>2022-09-14T08:38:32.172Z</time>
</trkpt>
<trkpt lat="31.7442100" lon="35.1079600">
<ele>537.070007</ele>
<time>2022-09-14T08:38:32.172Z</time>
</trkpt>
<trkpt lat="31.7443200" lon="35.1078600">
<ele>536.049988</ele>
<time>2022-09-14T08:38:32.172Z</time>
</trkpt>
<trkpt lat="31.7444900" lon="35.1077800">
<ele>534.549988</ele>
<time>2022-09-14T08:38:32.172Z</time>
</trkpt>
<trkpt lat="31.7446600" lon="35.1077600">
<ele>532.380005</ele>
<time>2022-09-14T08:38:32.172Z</time>
</trkpt>
<trkpt lat="31.7449400" lon="35.1077300">
<ele>532.840027</ele>
<time>2022-09-14T08:38:32.172Z</time>
</trkpt>
<trkpt lat="31.7451000" lon="35.1077100">
<ele>532.659973</ele>
<time>2022-09-14T08:38:32.172Z</time>
</trkpt>
<trkpt lat="31.7458400" lon="35.1075000">
<ele>529.019958</ele>
<time>2022-09-14T08:38:32.172Z</time>
</trkpt>
<trkpt lat="31.7463000" lon="35.1074000">
<ele>531.450012</ele>
<time>2022-09-14T08:38:32.172Z</time>
</trkpt>
<trkpt lat="31.7464000" lon="35.1073700">
<ele>532.710022</ele>
<time>2022-09-14T08:38:32.172Z</time>
</trkpt>
<trkpt lat="31.7465400" lon="35.1073000">
<ele>534.609985</ele>
<time>2022-09-14T08:38:32.172Z</time>
</trkpt>
<trkpt lat="31.7466800" lon="35.1071700">
<ele>536.540039</ele>
<time>2022-09-14T08:38:32.172Z</time>
</trkpt>
<trkpt lat="31.7467800" lon="35.1069900">
<ele>539.080017</ele>
<time>2022-09-14T08:38:32.172Z</time>
</trkpt>
<trkpt lat="31.7468400" lon="35.1067900">
<ele>540.470032</ele>
<time>2022-09-14T08:38:32.172Z</time>
</trkpt>
<trkpt lat="31.7468600" lon="35.1066200">
<ele>541.580017</ele>
<time>2022-09-14T08:38:32.172Z</time>
</trkpt>
<trkpt lat="31.7468600" lon="35.1065400">
<ele>542.270020</ele>
<time>2022-09-14T08:38:32.172Z</time>
</trkpt>
<trkpt lat="31.7468400" lon="35.1064600">
<ele>542.419983</ele>
<time>2022-09-14T08:38:32.172Z</time>
</trkpt>
<trkpt lat="31.7467900" lon="35.1063400">
<ele>542.859985</ele>
<time>2022-09-14T08:38:32.172Z</time>
</trkpt>
<trkpt lat="31.7467300" lon="35.1062400">
<ele>543.700012</ele>
<time>2022-09-14T08:38:32.172Z</time>
</trkpt>
<trkpt lat="31.7465200" lon="35.1060000">
<ele>547.479980</ele>
<time>2022-09-14T08:38:32.172Z</time>
</trkpt>
<trkpt lat="31.7463600" lon="35.1057700">
<ele>549.289978</ele>
<time>2022-09-14T08:38:32.172Z</time>
</trkpt>
<trkpt lat="31.7462500" lon="35.1056000">
<ele>549.359985</ele>
<time>2022-09-14T08:38:32.172Z</time>
</trkpt>
<trkpt lat="31.7461700" lon="35.1054100">
<ele>549.320007</ele>
<time>2022-09-14T08:38:32.172Z</time>
</trkpt>
<trkpt lat="31.7460900" lon="35.1051700">
<ele>548.979980</ele>
<time>2022-09-14T08:38:32.172Z</time>
</trkpt>
<trkpt lat="31.7460400" lon="35.1049700">
<ele>548.619995</ele>
<time>2022-09-14T08:38:32.172Z</time>
</trkpt>
<trkpt lat="31.7459700" lon="35.1045900">
<ele>547.460022</ele>
<time>2022-09-14T08:38:32.172Z</time>
</trkpt>
<trkpt lat="31.7459200" lon="35.1041700">
<ele>545.500000</ele>
<time>2022-09-14T08:38:32.172Z</time>
</trkpt>
<trkpt lat="31.7458800" lon="35.1040100">
<ele>546.040039</ele>
<time>2022-09-14T08:38:32.172Z</time>
</trkpt>
<trkpt lat="31.7458100" lon="35.1038100">
<ele>546.760010</ele>
<time>2022-09-14T08:38:32.172Z</time>
</trkpt>
<trkpt lat="31.7454500" lon="35.1031200">
<ele>551.489990</ele>
<time>2022-09-14T08:38:32.172Z</time>
</trkpt>
<trkpt lat="31.7452800" lon="35.1027000">
<ele>551.330017</ele>
<time>2022-09-14T08:38:32.172Z</time>
</trkpt>
<trkpt lat="31.7451800" lon="35.1023400">
<ele>551.169983</ele>
<time>2022-09-14T08:38:32.172Z</time>
</trkpt>
<trkpt lat="31.7454000" lon="35.1009100">
<ele>562.369995</ele>
<time>2022-09-14T08:38:32.172Z</time>
</trkpt>
<trkpt lat="31.7454600" lon="35.1005300">
<ele>564.619995</ele>
<time>2022-09-14T08:38:32.172Z</time>
</trkpt>
<trkpt lat="31.7455200" lon="35.1003300">
<ele>566.210022</ele>
<time>2022-09-14T08:38:32.172Z</time>
</trkpt>
<trkpt lat="31.7455600" lon="35.1002100">
<ele>566.659973</ele>
<time>2022-09-14T08:38:32.172Z</time>
</trkpt>
<trkpt lat="31.7456400" lon="35.1000700">
<ele>567.859985</ele>
<time>2022-09-14T08:38:32.172Z</time>
</trkpt>
<trkpt lat="31.7459700" lon="35.0996700">
<ele>571.770020</ele>
<time>2022-09-14T08:38:32.172Z</time>
</trkpt>
<trkpt lat="31.7460500" lon="35.0994800">
<ele>572.320007</ele>
<time>2022-09-14T08:38:32.172Z</time>
</trkpt>
<trkpt lat="31.7460700" lon="35.0993100">
<ele>573.039978</ele>
<time>2022-09-14T08:38:32.172Z</time>
</trkpt>
<trkpt lat="31.7460300" lon="35.0989700">
<ele>574.419983</ele>
<time>2022-09-14T08:38:32.172Z</time>
</trkpt>
<trkpt lat="31.7459600" lon="35.0988000">
<ele>573.650024</ele>
<time>2022-09-14T08:38:32.172Z</time>
</trkpt>
<trkpt lat="31.7460300" lon="35.0986400">
<ele>574.570007</ele>
<time>2022-09-14T08:38:32.172Z</time>
</trkpt>
<trkpt lat="31.7460600" lon="35.0983400">
<ele>571.359985</ele>
<time>2022-09-14T08:38:32.172Z</time>
</trkpt>
<trkpt lat="31.7460900" lon="35.0981200">
<ele>568.510010</ele>
<time>2022-09-14T08:38:32.172Z</time>
</trkpt>
<trkpt lat="31.7461600" lon="35.0979700">
<ele>567.039978</ele>
<time>2022-09-14T08:38:32.172Z</time>
</trkpt>
<trkpt lat="31.7462300" lon="35.0978700">
<ele>565.279968</ele>
<time>2022-09-14T08:38:32.172Z</time>
</trkpt>
<trkpt lat="31.7462900" lon="35.0978200">
<ele>563.919983</ele>
<time>2022-09-14T08:38:32.172Z</time>
</trkpt>
<trkpt lat="31.7464700" lon="35.0977500">
<ele>560.489990</ele>
<time>2022-09-14T08:38:32.172Z</time>
</trkpt>
<trkpt lat="31.7467900" lon="35.0977000">
<ele>557.070007</ele>
<time>2022-09-14T08:38:32.172Z</time>
</trkpt>
<trkpt lat="31.7469700" lon="35.0976400">
<ele>555.609985</ele>
<time>2022-09-14T08:38:32.172Z</time>
</trkpt>
<trkpt lat="31.7470300" lon="35.0976200">
<ele>555.380005</ele>
<time>2022-09-14T08:38:32.172Z</time>
</trkpt>
<trkpt lat="31.7472500" lon="35.0975100">
<ele>552.729980</ele>
<time>2022-09-14T08:38:32.172Z</time>
</trkpt>
<trkpt lat="31.7474100" lon="35.0974100">
<ele>552.739990</ele>
<time>2022-09-14T08:38:32.172Z</time>
</trkpt>
<trkpt lat="31.7474900" lon="35.0973600">
<ele>551.929993</ele>
<time>2022-09-14T08:38:32.172Z</time>
</trkpt>
<trkpt lat="31.7475600" lon="35.0973300">
<ele>552.250000</ele>
<time>2022-09-14T08:38:32.172Z</time>
</trkpt>
<trkpt lat="31.7479500" lon="35.0971300">
<ele>548.390015</ele>
<time>2022-09-14T08:38:32.172Z</time>
</trkpt>
<trkpt lat="31.7482600" lon="35.0970000">
<ele>542.770020</ele>
<time>2022-09-14T08:38:32.172Z</time>
</trkpt>
<trkpt lat="31.7483600" lon="35.0969400">
<ele>539.790039</ele>
<time>2022-09-14T08:38:32.172Z</time>
</trkpt>
<trkpt lat="31.7485900" lon="35.0968400">
<ele>536.789978</ele>
<time>2022-09-14T08:38:32.172Z</time>
</trkpt>
<trkpt lat="31.7489200" lon="35.0966800">
<ele>542.609985</ele>
<time>2022-09-14T08:38:32.172Z</time>
</trkpt>
<trkpt lat="31.7492400" lon="35.0964900">
<ele>542.270020</ele>
<time>2022-09-14T08:38:32.172Z</time>
</trkpt>
<trkpt lat="31.7493500" lon="35.0964600">
<ele>544.570007</ele>
<time>2022-09-14T08:38:32.172Z</time>
</trkpt>
<trkpt lat="31.7497100" lon="35.0964600">
<ele>550.390015</ele>
<time>2022-09-14T08:38:32.172Z</time>
</trkpt>
<trkpt lat="31.7498100" lon="35.0964100">
<ele>550.109985</ele>
<time>2022-09-14T08:38:32.172Z</time>
</trkpt>
<trkpt lat="31.7498800" lon="35.0963200">
<ele>548.539978</ele>
<time>2022-09-14T08:38:32.172Z</time>
</trkpt>
<trkpt lat="31.7499200" lon="35.0961600">
<ele>545.239990</ele>
<time>2022-09-14T08:38:32.172Z</time>
</trkpt>
<trkpt lat="31.7500800" lon="35.0957800">
<ele>539.059998</ele>
<time>2022-09-14T08:38:32.172Z</time>
</trkpt>
<trkpt lat="31.7502100" lon="35.0955800">
<ele>537.239990</ele>
<time>2022-09-14T08:38:32.172Z</time>
</trkpt>
<trkpt lat="31.7503200" lon="35.0954600">
<ele>536.540039</ele>
<time>2022-09-14T08:38:32.172Z</time>
</trkpt>
<trkpt lat="31.7505500" lon="35.0952600">
<ele>535.549988</ele>
<time>2022-09-14T08:38:32.172Z</time>
</trkpt>
<trkpt lat="31.7509400" lon="35.0950000">
<ele>533.150024</ele>
<time>2022-09-14T08:38:32.172Z</time>
</trkpt>
<trkpt lat="31.7509400" lon="35.0950000">
<ele>533.150024</ele>
<time>2022-09-14T08:38:32.172Z</time>
</trkpt>
<trkpt lat="31.7509400" lon="35.0950000">
<ele>533.150024</ele>
<time>2022-09-14T08:38:32.172Z</time>
</trkpt>
<trkpt lat="31.7509600" lon="35.0949900">
<ele>533.119995</ele>
<time>2022-09-14T08:38:32.172Z</time>
</trkpt>
<trkpt lat="31.7514300" lon="35.0946100">
<ele>531.250000</ele>
<time>2022-09-14T08:38:32.172Z</time>
</trkpt>
<trkpt lat="31.7515400" lon="35.0944900">
<ele>532.260010</ele>
<time>2022-09-14T08:38:32.172Z</time>
</trkpt>
<trkpt lat="31.7518600" lon="35.0939900">
<ele>534.579956</ele>
<time>2022-09-14T08:38:32.172Z</time>
</trkpt>
<trkpt lat="31.7519800" lon="35.0937200">
<ele>534.609985</ele>
<time>2022-09-14T08:38:32.172Z</time>
</trkpt>
<trkpt lat="31.7520600" lon="35.0934000">
<ele>533.440002</ele>
<time>2022-09-14T08:38:32.172Z</time>
</trkpt>
<trkpt lat="31.7522300" lon="35.0923100">
<ele>532.909973</ele>
<time>2022-09-14T08:38:32.172Z</time>
</trkpt>
<trkpt lat="31.7522700" lon="35.0921500">
<ele>532.900024</ele>
<time>2022-09-14T08:38:32.172Z</time>
</trkpt>
<trkpt lat="31.7526500" lon="35.0910500">
<ele>524.260010</ele>
<time>2022-09-14T08:38:32.172Z</time>
</trkpt>
<trkpt lat="31.7527000" lon="35.0909400">
<ele>523.140015</ele>
<time>2022-09-14T08:38:32.172Z</time>
</trkpt>
<trkpt lat="31.7528600" lon="35.0907100">
<ele>523.299988</ele>
<time>2022-09-14T08:38:32.172Z</time>
</trkpt>
<trkpt lat="31.7529800" lon="35.0905500">
<ele>522.469971</ele>
<time>2022-09-14T08:38:32.172Z</time>
</trkpt>
<trkpt lat="31.7532800" lon="35.0902500">
<ele>532.210022</ele>
<time>2022-09-14T08:38:32.172Z</time>
</trkpt>
<trkpt lat="31.7533400" lon="35.0902100">
<ele>533.779968</ele>
<time>2022-09-14T08:38:32.172Z</time>
</trkpt>
<trkpt lat="31.7534500" lon="35.0901900">
<ele>533.880005</ele>
<time>2022-09-14T08:38:32.172Z</time>
</trkpt>
<trkpt lat="31.7536600" lon="35.0902300">
<ele>534.159973</ele>
<time>2022-09-14T08:38:32.172Z</time>
</trkpt>
<trkpt lat="31.7541700" lon="35.0904400">
<ele>527.549988</ele>
<time>2022-09-14T08:38:32.172Z</time>
</trkpt>
<trkpt lat="31.7545200" lon="35.0906500">
<ele>521.140015</ele>
<time>2022-09-14T08:38:32.172Z</time>
</trkpt>
<trkpt lat="31.7546400" lon="35.0907500">
<ele>518.950012</ele>
<time>2022-09-14T08:38:32.172Z</time>
</trkpt>
<trkpt lat="31.7547400" lon="35.0908700">
<ele>518.340027</ele>
<time>2022-09-14T08:38:32.172Z</time>
</trkpt>
<trkpt lat="31.7548900" lon="35.0912100">
<ele>523.260010</ele>
<time>2022-09-14T08:38:32.172Z</time>
</trkpt>
<trkpt lat="31.7549900" lon="35.0913800">
<ele>527.789978</ele>
<time>2022-09-14T08:38:32.172Z</time>
</trkpt>
<trkpt lat="31.7551100" lon="35.0914800">
<ele>528.440002</ele>
<time>2022-09-14T08:38:32.172Z</time>
</trkpt>
<trkpt lat="31.7552700" lon="35.0915700">
<ele>525.530029</ele>
<time>2022-09-14T08:38:32.172Z</time>
</trkpt>
<trkpt lat="31.7554100" lon="35.0915800">
<ele>522.380005</ele>
<time>2022-09-14T08:38:32.172Z</time>
</trkpt>
<trkpt lat="31.7555200" lon="35.0915400">
<ele>518.279968</ele>
<time>2022-09-14T08:38:32.172Z</time>
</trkpt>
<trkpt lat="31.7556500" lon="35.0914700">
<ele>515.399963</ele>
<time>2022-09-14T08:38:32.172Z</time>
</trkpt>
<trkpt lat="31.7558500" lon="35.0912800">
<ele>512.820007</ele>
<time>2022-09-14T08:38:32.172Z</time>
</trkpt>
<trkpt lat="31.7560400" lon="35.0911800">
<ele>511.739990</ele>
<time>2022-09-14T08:38:32.172Z</time>
</trkpt>
<trkpt lat="31.7561500" lon="35.0911600">
<ele>510.569977</ele>
<time>2022-09-14T08:38:32.172Z</time>
</trkpt>
<trkpt lat="31.7562500" lon="35.0911800">
<ele>508.370026</ele>
<time>2022-09-14T08:38:32.172Z</time>
</trkpt>
<trkpt lat="31.7564200" lon="35.0912600">
<ele>504.980011</ele>
<time>2022-09-14T08:38:32.172Z</time>
</trkpt>
<trkpt lat="31.7565100" lon="35.0913900">
<ele>504.109985</ele>
<time>2022-09-14T08:38:32.172Z</time>
</trkpt>
<trkpt lat="31.7565500" lon="35.0915100">
<ele>506.079987</ele>
<time>2022-09-14T08:38:32.172Z</time>
</trkpt>
<trkpt lat="31.7567000" lon="35.0922500">
<ele>521.700012</ele>
<time>2022-09-14T08:38:32.172Z</time>
</trkpt>
<trkpt lat="31.7567600" lon="35.0924500">
<ele>523.820007</ele>
<time>2022-09-14T08:38:32.172Z</time>
</trkpt>
<trkpt lat="31.7568800" lon="35.0927600">
<ele>528.760010</ele>
<time>2022-09-14T08:38:32.172Z</time>
</trkpt>
<trkpt lat="31.7569500" lon="35.0928600">
<ele>529.880005</ele>
<time>2022-09-14T08:38:32.172Z</time>
</trkpt>
<trkpt lat="31.7571000" lon="35.0930300">
<ele>529.260010</ele>
<time>2022-09-14T08:38:32.172Z</time>
</trkpt>
<trkpt lat="31.7575900" lon="35.0934600">
<ele>529.910034</ele>
<time>2022-09-14T08:38:32.172Z</time>
</trkpt>
<trkpt lat="31.7578100" lon="35.0936200">
<ele>527.559998</ele>
<time>2022-09-14T08:38:32.172Z</time>
</trkpt>
<trkpt lat="31.7580100" lon="35.0937100">
<ele>519.150024</ele>
<time>2022-09-14T08:38:32.172Z</time>
</trkpt>
<trkpt lat="31.7582100" lon="35.0938900">
<ele>518.000000</ele>
<time>2022-09-14T08:38:32.172Z</time>
</trkpt>
<trkpt lat="31.7582700" lon="35.0939900">
<ele>518.279968</ele>
<time>2022-09-14T08:38:32.172Z</time>
</trkpt>
<trkpt lat="31.7582900" lon="35.0942000">
<ele>518.710022</ele>
<time>2022-09-14T08:38:32.172Z</time>
</trkpt>
<trkpt lat="31.7582700" lon="35.0944100">
<ele>517.700012</ele>
<time>2022-09-14T08:38:32.172Z</time>
</trkpt>
<trkpt lat="31.7582200" lon="35.0945200">
<ele>516.260010</ele>
<time>2022-09-14T08:38:32.172Z</time>
</trkpt>
<trkpt lat="31.7581100" lon="35.0946800">
<ele>513.170044</ele>
<time>2022-09-14T08:38:32.172Z</time>
</trkpt>
<trkpt lat="31.7577500" lon="35.0949700">
<ele>513.140015</ele>
<time>2022-09-14T08:38:32.172Z</time>
</trkpt>
<trkpt lat="31.7572800" lon="35.0954400">
<ele>518.969971</ele>
<time>2022-09-14T08:38:32.172Z</time>
</trkpt>
<trkpt lat="31.7566000" lon="35.0959900">
<ele>525.770020</ele>
<time>2022-09-14T08:38:32.172Z</time>
</trkpt>
<trkpt lat="31.7555600" lon="35.0967400">
<ele>536.909973</ele>
<time>2022-09-14T08:38:32.172Z</time>
</trkpt>
<trkpt lat="31.7544200" lon="35.0977000">
<ele>547.059998</ele>
<time>2022-09-14T08:38:32.172Z</time>
</trkpt>
<trkpt lat="31.7540300" lon="35.0982100">
<ele>550.750000</ele>
<time>2022-09-14T08:38:32.172Z</time>
</trkpt>
<trkpt lat="31.7539100" lon="35.0983400">
<ele>551.359985</ele>
<time>2022-09-14T08:38:32.172Z</time>
</trkpt>
<trkpt lat="31.7537500" lon="35.0985300">
<ele>556.390015</ele>
<time>2022-09-14T08:38:32.172Z</time>
</trkpt>
<trkpt lat="31.7536100" lon="35.0987300">
<ele>561.150024</ele>
<time>2022-09-14T08:38:32.172Z</time>
</trkpt>
<trkpt lat="31.7535800" lon="35.0988000">
<ele>562.579956</ele>
<time>2022-09-14T08:38:32.172Z</time>
</trkpt>
<trkpt lat="31.7535600" lon="35.0988800">
<ele>563.869995</ele>
<time>2022-09-14T08:38:32.172Z</time>
</trkpt>
<trkpt lat="31.7535600" lon="35.0990500">
<ele>566.000000</ele>
<time>2022-09-14T08:38:32.172Z</time>
</trkpt>
<trkpt lat="31.7537600" lon="35.0998200">
<ele>569.000000</ele>
<time>2022-09-14T08:38:32.172Z</time>
</trkpt>
<trkpt lat="31.7538100" lon="35.1002400">
<ele>573.700012</ele>
<time>2022-09-14T08:38:32.172Z</time>
</trkpt>
<trkpt lat="31.7538500" lon="35.1003600">
<ele>575.369995</ele>
<time>2022-09-14T08:38:32.172Z</time>
</trkpt>
<trkpt lat="31.7539200" lon="35.1005000">
<ele>576.979980</ele>
<time>2022-09-14T08:38:32.172Z</time>
</trkpt>
<trkpt lat="31.7541600" lon="35.1006900">
<ele>577.030029</ele>
<time>2022-09-14T08:38:32.172Z</time>
</trkpt>
<trkpt lat="31.7542400" lon="35.1007800">
<ele>576.510010</ele>
<time>2022-09-14T08:38:32.172Z</time>
</trkpt>
<trkpt lat="31.7542900" lon="35.1008900">
<ele>576.719971</ele>
<time>2022-09-14T08:38:32.172Z</time>
</trkpt>
<trkpt lat="31.7543100" lon="35.1010200">
<ele>577.630005</ele>
<time>2022-09-14T08:38:32.172Z</time>
</trkpt>
<trkpt lat="31.7543200" lon="35.1012700">
<ele>580.059998</ele>
<time>2022-09-14T08:38:32.172Z</time>
</trkpt>
<trkpt lat="31.7542800" lon="35.1013900">
<ele>581.770020</ele>
<time>2022-09-14T08:38:32.172Z</time>
</trkpt>
<trkpt lat="31.7542800" lon="35.1013900">
<ele>581.770020</ele>
<time>2022-09-14T08:38:32.172Z</time>
</trkpt>
<trkpt lat="31.7542800" lon="35.1013900">
<ele>581.770020</ele>
<time>2022-09-14T08:38:32.172Z</time>
</trkpt>
<trkpt lat="31.7541800" lon="35.1017500">
<ele>581.320007</ele>
<time>2022-09-14T08:38:32.172Z</time>
</trkpt>
<trkpt lat="31.7540900" lon="35.1023400">
<ele>578.520020</ele>
<time>2022-09-14T08:38:32.172Z</time>
</trkpt>
<trkpt lat="31.7540200" lon="35.1025800">
<ele>579.149963</ele>
<time>2022-09-14T08:38:32.172Z</time>
</trkpt>
<trkpt lat="31.7539700" lon="35.1027800">
<ele>579.700012</ele>
<time>2022-09-14T08:38:32.172Z</time>
</trkpt>
<trkpt lat="31.7538200" lon="35.1031500">
<ele>578.989990</ele>
<time>2022-09-14T08:38:32.172Z</time>
</trkpt>
<trkpt lat="31.7537500" lon="35.1034300">
<ele>577.960022</ele>
<time>2022-09-14T08:38:32.172Z</time>
</trkpt>
<trkpt lat="31.7537200" lon="35.1035100">
<ele>577.309998</ele>
<time>2022-09-14T08:38:32.172Z</time>
</trkpt>
<trkpt lat="31.7534800" lon="35.1038700">
<ele>576.059998</ele>
<time>2022-09-14T08:38:32.172Z</time>
</trkpt>
<trkpt lat="31.7534200" lon="35.1040100">
<ele>575.880005</ele>
<time>2022-09-14T08:38:32.172Z</time>
</trkpt>
<trkpt lat="31.7533700" lon="35.1042600">
<ele>575.049988</ele>
<time>2022-09-14T08:38:32.172Z</time>
</trkpt>
<trkpt lat="31.7533600" lon="35.1044900">
<ele>574.229980</ele>
<time>2022-09-14T08:38:32.172Z</time>
</trkpt>
<trkpt lat="31.7534300" lon="35.1049600">
<ele>570.400024</ele>
<time>2022-09-14T08:38:32.172Z</time>
</trkpt>
<trkpt lat="31.7534100" lon="35.1051800">
<ele>569.150024</ele>
<time>2022-09-14T08:38:32.172Z</time>
</trkpt>
<trkpt lat="31.7532700" lon="35.1055400">
<ele>571.609985</ele>
<time>2022-09-14T08:38:32.172Z</time>
</trkpt>
<trkpt lat="31.7531800" lon="35.1059000">
<ele>571.720032</ele>
<time>2022-09-14T08:38:32.172Z</time>
</trkpt>
<trkpt lat="31.7531000" lon="35.1061700">
<ele>571.320007</ele>
<time>2022-09-14T08:38:32.172Z</time>
</trkpt>
<trkpt lat="31.7527400" lon="35.1070600">
<ele>573.369995</ele>
<time>2022-09-14T08:38:32.172Z</time>
</trkpt>
<trkpt lat="31.7526900" lon="35.1071600">
<ele>573.700012</ele>
<time>2022-09-14T08:38:32.172Z</time>
</trkpt>
<trkpt lat="31.7526100" lon="35.1072800">
<ele>574.080017</ele>
<time>2022-09-14T08:38:32.172Z</time>
</trkpt>
<trkpt lat="31.7524800" lon="35.1074200">
<ele>574.970032</ele>
<time>2022-09-14T08:38:32.172Z</time>
</trkpt>
<trkpt lat="31.7524100" lon="35.1075300">
<ele>575.190002</ele>
<time>2022-09-14T08:38:32.172Z</time>
</trkpt>
<trkpt lat="31.7523200" lon="35.1077500">
<ele>574.840027</ele>
<time>2022-09-14T08:38:32.172Z</time>
</trkpt>
<trkpt lat="31.7521400" lon="35.1080400">
<ele>575.030029</ele>
<time>2022-09-14T08:38:32.172Z</time>
</trkpt>
<trkpt lat="31.7517700" lon="35.1085400">
<ele>575.109985</ele>
<time>2022-09-14T08:38:32.172Z</time>
</trkpt>
<trkpt lat="31.7513300" lon="35.1090400">
<ele>574.119995</ele>
<time>2022-09-14T08:38:32.172Z</time>
</trkpt>
<trkpt lat="31.7512800" lon="35.1091200">
<ele>574.049988</ele>
<time>2022-09-14T08:38:32.172Z</time>
</trkpt>
<trkpt lat="31.7511900" lon="35.1092500">
<ele>574.979980</ele>
<time>2022-09-14T08:38:32.172Z</time>
</trkpt>
<trkpt lat="31.7511400" lon="35.1093700">
<ele>576.789978</ele>
<time>2022-09-14T08:38:32.172Z</time>
</trkpt>
<trkpt lat="31.7510900" lon="35.1095600">
<ele>579.510010</ele>
<time>2022-09-14T08:38:32.172Z</time>
</trkpt>
<trkpt lat="31.7510800" lon="35.1096500">
<ele>580.739990</ele>
<time>2022-09-14T08:38:32.172Z</time>
</trkpt>
<trkpt lat="31.7510600" lon="35.1098100">
<ele>582.640015</ele>
<time>2022-09-14T08:38:32.172Z</time>
</trkpt>
<trkpt lat="31.7510800" lon="35.1099800">
<ele>584.660034</ele>
<time>2022-09-14T08:38:32.172Z</time>
</trkpt>
<trkpt lat="31.7511700" lon="35.1101400">
<ele>584.469971</ele>
<time>2022-09-14T08:38:32.172Z</time>
</trkpt>
<trkpt lat="31.7513500" lon="35.1102900">
<ele>582.340027</ele>
<time>2022-09-14T08:38:32.172Z</time>
</trkpt>
<trkpt lat="31.7514100" lon="35.1103600">
<ele>580.739990</ele>
<time>2022-09-14T08:38:32.172Z</time>
</trkpt>
<trkpt lat="31.7514600" lon="35.1104700">
<ele>578.760010</ele>
<time>2022-09-14T08:38:32.172Z</time>
</trkpt>
<trkpt lat="31.7515100" lon="35.1106100">
<ele>577.470032</ele>
<time>2022-09-14T08:38:32.172Z</time>
</trkpt>
<trkpt lat="31.7515600" lon="35.1109100">
<ele>576.750000</ele>
<time>2022-09-14T08:38:32.172Z</time>
</trkpt>
<trkpt lat="31.7515800" lon="35.1113300">
<ele>576.169983</ele>
<time>2022-09-14T08:38:32.172Z</time>
</trkpt>
<trkpt lat="31.7515300" lon="35.1116900">
<ele>577.559998</ele>
<time>2022-09-14T08:38:32.172Z</time>
</trkpt>
<trkpt lat="31.7514300" lon="35.1121600">
<ele>580.880005</ele>
<time>2022-09-14T08:38:32.172Z</time>
</trkpt>
<trkpt lat="31.7512300" lon="35.1133900">
<ele>579.480042</ele>
<time>2022-09-14T08:38:32.172Z</time>
</trkpt>
<trkpt lat="31.7512000" lon="35.1135100">
<ele>579.179993</ele>
<time>2022-09-14T08:38:32.172Z</time>
</trkpt>
<trkpt lat="31.7511300" lon="35.1137200">
<ele>578.540039</ele>
<time>2022-09-14T08:38:32.172Z</time>
</trkpt>
<trkpt lat="31.7510500" lon="35.1138600">
<ele>577.270020</ele>
<time>2022-09-14T08:38:32.172Z</time>
</trkpt>
<trkpt lat="31.7507700" lon="35.1141800">
<ele>578.209961</ele>
<time>2022-09-14T08:38:32.172Z</time>
</trkpt>
<trkpt lat="31.7507400" lon="35.1143000">
<ele>580.239990</ele>
<time>2022-09-14T08:38:32.172Z</time>
</trkpt>
<trkpt lat="31.7507500" lon="35.1143800">
<ele>581.530029</ele>
<time>2022-09-14T08:38:32.172Z</time>
</trkpt>
<trkpt lat="31.7508000" lon="35.1144600">
<ele>582.470032</ele>
<time>2022-09-14T08:38:32.172Z</time>
</trkpt>
<trkpt lat="31.7511300" lon="35.1147400">
<ele>586.049988</ele>
<time>2022-09-14T08:38:32.172Z</time>
</trkpt>
<trkpt lat="31.7514000" lon="35.1151500">
<ele>585.349976</ele>
<time>2022-09-14T08:38:32.172Z</time>
</trkpt>
<trkpt lat="31.7517400" lon="35.1155800">
<ele>583.000000</ele>
<time>2022-09-14T08:38:32.172Z</time>
</trkpt>
<trkpt lat="31.7520400" lon="35.1161700">
<ele>572.669983</ele>
<time>2022-09-14T08:38:32.172Z</time>
</trkpt>
<trkpt lat="31.7522100" lon="35.1166400">
<ele>568.529968</ele>
<time>2022-09-14T08:38:32.172Z</time>
</trkpt>
<trkpt lat="31.7523200" lon="35.1168200">
<ele>568.359985</ele>
<time>2022-09-14T08:38:32.172Z</time>
</trkpt>
<trkpt lat="31.7523700" lon="35.1168600">
<ele>568.119995</ele>
<time>2022-09-14T08:38:32.172Z</time>
</trkpt>
<trkpt lat="31.7524300" lon="35.1168900">
<ele>567.660034</ele>
<time>2022-09-14T08:38:32.172Z</time>
</trkpt>
<trkpt lat="31.7525800" lon="35.1168900">
<ele>567.179993</ele>
<time>2022-09-14T08:38:32.172Z</time>
</trkpt>
<trkpt lat="31.7526700" lon="35.1168700">
<ele>567.080017</ele>
<time>2022-09-14T08:38:32.172Z</time>
</trkpt>
<trkpt lat="31.7529900" lon="35.1167200">
<ele>570.220032</ele>
<time>2022-09-14T08:38:32.172Z</time>
</trkpt>
<trkpt lat="31.7532100" lon="35.1165700">
<ele>574.840027</ele>
<time>2022-09-14T08:38:32.172Z</time>
</trkpt>
<trkpt lat="31.7533700" lon="35.1164700">
<ele>576.220032</ele>
<time>2022-09-14T08:38:32.172Z</time>
</trkpt>
<trkpt lat="31.7534400" lon="35.1164400">
<ele>576.669983</ele>
<time>2022-09-14T08:38:32.172Z</time>
</trkpt>
<trkpt lat="31.7535500" lon="35.1164600">
<ele>578.440002</ele>
<time>2022-09-14T08:38:32.172Z</time>
</trkpt>
<trkpt lat="31.7536200" lon="35.1165100">
<ele>579.000000</ele>
<time>2022-09-14T08:38:32.172Z</time>
</trkpt>
<trkpt lat="31.7536700" lon="35.1166000">
<ele>577.059998</ele>
<time>2022-09-14T08:38:32.172Z</time>
</trkpt>
<trkpt lat="31.7542100" lon="35.1179900">
<ele>566.330017</ele>
<time>2022-09-14T08:38:32.172Z</time>
</trkpt>
<trkpt lat="31.7542700" lon="35.1180400">
<ele>565.869995</ele>
<time>2022-09-14T08:38:32.172Z</time>
</trkpt>
<trkpt lat="31.7543400" lon="35.1180700">
<ele>565.399963</ele>
<time>2022-09-14T08:38:32.172Z</time>
</trkpt>
<trkpt lat="31.7545500" lon="35.1181000">
<ele>561.359985</ele>
<time>2022-09-14T08:38:32.172Z</time>
</trkpt>
<trkpt lat="31.7548400" lon="35.1181800">
<ele>556.429993</ele>
<time>2022-09-14T08:38:32.172Z</time>
</trkpt>
<trkpt lat="31.7551900" lon="35.1183700">
<ele>554.210022</ele>
<time>2022-09-14T08:38:32.172Z</time>
</trkpt>
<trkpt lat="31.7553100" lon="35.1184500">
<ele>553.299988</ele>
<time>2022-09-14T08:38:32.172Z</time>
</trkpt>
<trkpt lat="31.7558300" lon="35.1188800">
<ele>556.809998</ele>
<time>2022-09-14T08:38:32.172Z</time>
</trkpt>
<trkpt lat="31.7559800" lon="35.1190600">
<ele>559.320007</ele>
<time>2022-09-14T08:38:32.172Z</time>
</trkpt>
<trkpt lat="31.7561300" lon="35.1193200">
<ele>562.709961</ele>
<time>2022-09-14T08:38:32.172Z</time>
</trkpt>
<trkpt lat="31.7562100" lon="35.1193900">
<ele>561.869995</ele>
<time>2022-09-14T08:38:32.172Z</time>
</trkpt>
<trkpt lat="31.7565200" lon="35.1196200">
<ele>557.399963</ele>
<time>2022-09-14T08:38:32.172Z</time>
</trkpt>
<trkpt lat="31.7566000" lon="35.1196900">
<ele>556.280029</ele>
<time>2022-09-14T08:38:32.172Z</time>
</trkpt>
<trkpt lat="31.7568000" lon="35.1199800">
<ele>552.470032</ele>
<time>2022-09-14T08:38:32.172Z</time>
</trkpt>
<trkpt lat="31.7569300" lon="35.1202200">
<ele>547.429993</ele>
<time>2022-09-14T08:38:32.172Z</time>
</trkpt>
<trkpt lat="31.7569900" lon="35.1203700">
<ele>546.969971</ele>
<time>2022-09-14T08:38:32.172Z</time>
</trkpt>
<trkpt lat="31.7570100" lon="35.1204800">
<ele>548.109985</ele>
<time>2022-09-14T08:38:32.172Z</time>
</trkpt>
<trkpt lat="31.7570200" lon="35.1206700">
<ele>550.359985</ele>
<time>2022-09-14T08:38:32.172Z</time>
</trkpt>
<trkpt lat="31.7570000" lon="35.1208400">
<ele>553.029968</ele>
<time>2022-09-14T08:38:32.172Z</time>
</trkpt>
<trkpt lat="31.7569600" lon="35.1210100">
<ele>555.150024</ele>
<time>2022-09-14T08:38:32.172Z</time>
</trkpt>
<trkpt lat="31.7568300" lon="35.1213000">
<ele>560.229980</ele>
<time>2022-09-14T08:38:32.172Z</time>
</trkpt>
<trkpt lat="31.7567800" lon="35.1214800">
<ele>563.600037</ele>
<time>2022-09-14T08:38:32.172Z</time>
</trkpt>
<trkpt lat="31.7567900" lon="35.1215500">
<ele>564.679993</ele>
<time>2022-09-14T08:38:32.172Z</time>
</trkpt>
<trkpt lat="31.7568500" lon="35.1216300">
<ele>565.039978</ele>
<time>2022-09-14T08:38:32.172Z</time>
</trkpt>
<trkpt lat="31.7569200" lon="35.1216700">
<ele>564.520020</ele>
<time>2022-09-14T08:38:32.172Z</time>
</trkpt>
<trkpt lat="31.7571500" lon="35.1217000">
<ele>557.409973</ele>
<time>2022-09-14T08:38:32.172Z</time>
</trkpt>
<trkpt lat="31.7573500" lon="35.1217400">
<ele>552.290039</ele>
<time>2022-09-14T08:38:32.172Z</time>
</trkpt>
<trkpt lat="31.7573500" lon="35.1217400">
<ele>552.290039</ele>
<time>2022-09-14T08:38:32.172Z</time>
</trkpt>
<trkpt lat="31.7573500" lon="35.1217400">
<ele>552.290039</ele>
<time>2022-09-14T08:38:32.172Z</time>
</trkpt>
<trkpt lat="31.7576900" lon="35.1218200">
<ele>547.750000</ele>
<time>2022-09-14T08:38:32.172Z</time>
</trkpt>
<trkpt lat="31.7579300" lon="35.1218500">
<ele>544.679993</ele>
<time>2022-09-14T08:38:32.172Z</time>
</trkpt>
<trkpt lat="31.7581900" lon="35.1219200">
<ele>544.130005</ele>
<time>2022-09-14T08:38:32.172Z</time>
</trkpt>
<trkpt lat="31.7585800" lon="35.1219500">
<ele>543.250000</ele>
<time>2022-09-14T08:38:32.172Z</time>
</trkpt>
<trkpt lat="31.7588300" lon="35.1220200">
<ele>537.679993</ele>
<time>2022-09-14T08:38:32.172Z</time>
</trkpt>
<trkpt lat="31.7590500" lon="35.1221400">
<ele>538.989990</ele>
<time>2022-09-14T08:38:32.172Z</time>
</trkpt>
<trkpt lat="31.7588900" lon="35.1219200">
<ele>533.559998</ele>
<time>2022-09-14T08:38:32.172Z</time>
</trkpt>
<trkpt lat="31.7584200" lon="35.1217700">
<ele>536.840027</ele>
<time>2022-09-14T08:38:32.172Z</time>
</trkpt>
<trkpt lat="31.7578800" lon="35.1215400">
<ele>536.619995</ele>
<time>2022-09-14T08:38:32.172Z</time>
</trkpt>
<trkpt lat="31.7573800" lon="35.1213500">
<ele>546.289978</ele>
<time>2022-09-14T08:38:32.172Z</time>
</trkpt>
<trkpt lat="31.7572700" lon="35.1211800">
<ele>547.739990</ele>
<time>2022-09-14T08:38:32.172Z</time>
</trkpt>
<trkpt lat="31.7573400" lon="35.1210000">
<ele>543.239990</ele>
<time>2022-09-14T08:38:32.172Z</time>
</trkpt>
<trkpt lat="31.7575000" lon="35.1205100">
<ele>535.179993</ele>
<time>2022-09-14T08:38:32.172Z</time>
</trkpt>
<trkpt lat="31.7575200" lon="35.1201100">
<ele>526.940002</ele>
<time>2022-09-14T08:38:32.172Z</time>
</trkpt>
<trkpt lat="31.7573000" lon="35.1196700">
<ele>529.029968</ele>
<time>2022-09-14T08:38:32.172Z</time>
</trkpt>
<trkpt lat="31.7573200" lon="35.1195800">
<ele>526.750000</ele>
<time>2022-09-14T08:38:32.172Z</time>
</trkpt>
<trkpt lat="31.7573900" lon="35.1196500">
<ele>525.209961</ele>
<time>2022-09-14T08:38:32.172Z</time>
</trkpt>
<trkpt lat="31.7577100" lon="35.1198800">
<ele>519.169983</ele>
<time>2022-09-14T08:38:32.172Z</time>
</trkpt>
<trkpt lat="31.7578300" lon="35.1199200">
<ele>516.850037</ele>
<time>2022-09-14T08:38:32.172Z</time>
</trkpt>
<trkpt lat="31.7579900" lon="35.1198900">
<ele>512.320007</ele>
<time>2022-09-14T08:38:32.172Z</time>
</trkpt>
<trkpt lat="31.7579800" lon="35.1197700">
<ele>510.340027</ele>
<time>2022-09-14T08:38:32.172Z</time>
</trkpt>
<trkpt lat="31.7578400" lon="35.1195100">
<ele>510.340027</ele>
<time>2022-09-14T08:38:32.172Z</time>
</trkpt>
<trkpt lat="31.7575400" lon="35.1193000">
<ele>515.799988</ele>
<time>2022-09-14T08:38:32.172Z</time>
</trkpt>
<trkpt lat="31.7573400" lon="35.1189500">
<ele>515.350037</ele>
<time>2022-09-14T08:38:32.172Z</time>
</trkpt>
<trkpt lat="31.7571300" lon="35.1186700">
<ele>511.309998</ele>
<time>2022-09-14T08:38:32.172Z</time>
</trkpt>
<trkpt lat="31.7568000" lon="35.1185800">
<ele>509.339996</ele>
<time>2022-09-14T08:38:32.172Z</time>
</trkpt>
<trkpt lat="31.7565400" lon="35.1183300">
<ele>503.029999</ele>
<time>2022-09-14T08:38:32.172Z</time>
</trkpt>
<trkpt lat="31.7562700" lon="35.1182000">
<ele>506.459991</ele>
<time>2022-09-14T08:38:32.172Z</time>
</trkpt>
<trkpt lat="31.7562700" lon="35.1182000">
<ele>506.459991</ele>
<time>2022-09-14T08:38:32.172Z</time>
</trkpt>
<trkpt lat="31.7562700" lon="35.1182000">
<ele>506.459991</ele>
<time>2022-09-14T08:38:32.172Z</time>
</trkpt>
<trkpt lat="31.7561700" lon="35.1181600">
<ele>508.839996</ele>
<time>2022-09-14T08:38:32.172Z</time>
</trkpt>
<trkpt lat="31.7557900" lon="35.1178500">
<ele>508.760010</ele>
<time>2022-09-14T08:38:32.172Z</time>
</trkpt>
<trkpt lat="31.7553800" lon="35.1175800">
<ele>512.039978</ele>
<time>2022-09-14T08:38:32.172Z</time>
</trkpt>
<trkpt lat="31.7549300" lon="35.1172700">
<ele>509.520020</ele>
<time>2022-09-14T08:38:32.172Z</time>
</trkpt>
<trkpt lat="31.7548500" lon="35.1169800">
<ele>507.190002</ele>
<time>2022-09-14T08:38:32.172Z</time>
</trkpt>
<trkpt lat="31.7547600" lon="35.1167200">
<ele>507.250000</ele>
<time>2022-09-14T08:38:32.172Z</time>
</trkpt>
<trkpt lat="31.7545400" lon="35.1162600">
<ele>512.230042</ele>
<time>2022-09-14T08:38:32.172Z</time>
</trkpt>
<trkpt lat="31.7544500" lon="35.1158000">
<ele>510.919983</ele>
<time>2022-09-14T08:38:32.172Z</time>
</trkpt>
<trkpt lat="31.7544500" lon="35.1154300">
<ele>505.160004</ele>
<time>2022-09-14T08:38:32.172Z</time>
</trkpt>
<trkpt lat="31.7546000" lon="35.1151200">
<ele>491.680023</ele>
<time>2022-09-14T08:38:32.172Z</time>
</trkpt>
<trkpt lat="31.7548200" lon="35.1146000">
<ele>481.380005</ele>
<time>2022-09-14T08:38:32.172Z</time>
</trkpt>
<trkpt lat="31.7548700" lon="35.1143400">
<ele>482.339996</ele>
<time>2022-09-14T08:38:32.172Z</time>
</trkpt>
<trkpt lat="31.7548900" lon="35.1139700">
<ele>488.850006</ele>
<time>2022-09-14T08:38:32.172Z</time>
</trkpt>
<trkpt lat="31.7547800" lon="35.1137100">
<ele>492.390015</ele>
<time>2022-09-14T08:38:32.172Z</time>
</trkpt>
<trkpt lat="31.7548700" lon="35.1137200">
<ele>489.830017</ele>
<time>2022-09-14T08:38:32.172Z</time>
</trkpt>
<trkpt lat="31.7549900" lon="35.1137700">
<ele>486.309998</ele>
<time>2022-09-14T08:38:32.172Z</time>
</trkpt>
<trkpt lat="31.7550500" lon="35.1137700">
<ele>482.630005</ele>
<time>2022-09-14T08:38:32.172Z</time>
</trkpt>
<trkpt lat="31.7550900" lon="35.1137300">
<ele>480.080017</ele>
<time>2022-09-14T08:38:32.172Z</time>
</trkpt>
<trkpt lat="31.7551100" lon="35.1136600">
<ele>479.059998</ele>
<time>2022-09-14T08:38:32.172Z</time>
</trkpt>
<trkpt lat="31.7550800" lon="35.1135500">
<ele>480.609985</ele>
<time>2022-09-14T08:38:32.172Z</time>
</trkpt>
<trkpt lat="31.7550000" lon="35.1134400">
<ele>482.300018</ele>
<time>2022-09-14T08:38:32.172Z</time>
</trkpt>
<trkpt lat="31.7549900" lon="35.1133900">
<ele>481.419983</ele>
<time>2022-09-14T08:38:32.172Z</time>
</trkpt>
<trkpt lat="31.7550100" lon="35.1133200">
<ele>479.669983</ele>
<time>2022-09-14T08:38:32.172Z</time>
</trkpt>
<trkpt lat="31.7550600" lon="35.1132800">
<ele>478.529999</ele>
<time>2022-09-14T08:38:32.172Z</time>
</trkpt>
<trkpt lat="31.7553700" lon="35.1131400">
<ele>472.379974</ele>
<time>2022-09-14T08:38:32.172Z</time>
</trkpt>
<trkpt lat="31.7554200" lon="35.1130900">
<ele>470.690002</ele>
<time>2022-09-14T08:38:32.172Z</time>
</trkpt>
<trkpt lat="31.7554100" lon="35.1130400">
<ele>471.059998</ele>
<time>2022-09-14T08:38:32.172Z</time>
</trkpt>
<trkpt lat="31.7553500" lon="35.1130000">
<ele>472.419983</ele>
<time>2022-09-14T08:38:32.172Z</time>
</trkpt>
<trkpt lat="31.7552100" lon="35.1129900">
<ele>474.059998</ele>
<time>2022-09-14T08:38:32.172Z</time>
</trkpt>
<trkpt lat="31.7551800" lon="35.1129700">
<ele>473.300018</ele>
<time>2022-09-14T08:38:32.172Z</time>
</trkpt>
<trkpt lat="31.7551700" lon="35.1129200">
<ele>471.640015</ele>
<time>2022-09-14T08:38:32.172Z</time>
</trkpt>
<trkpt lat="31.7552000" lon="35.1128800">
<ele>470.690002</ele>
<time>2022-09-14T08:38:32.172Z</time>
</trkpt>
<trkpt lat="31.7552600" lon="35.1128500">
<ele>470.579987</ele>
<time>2022-09-14T08:38:32.172Z</time>
</trkpt>
<trkpt lat="31.7556200" lon="35.1128700">
<ele>464.660004</ele>
<time>2022-09-14T08:38:32.172Z</time>
</trkpt>
<trkpt lat="31.7556800" lon="35.1128300">
<ele>462.860016</ele>
<time>2022-09-14T08:38:32.172Z</time>
</trkpt>
<trkpt lat="31.7557200" lon="35.1127500">
<ele>461.490021</ele>
<time>2022-09-14T08:38:32.172Z</time>
</trkpt>
<trkpt lat="31.7557200" lon="35.1126700">
<ele>460.970001</ele>
<time>2022-09-14T08:38:32.172Z</time>
</trkpt>
<trkpt lat="31.7556800" lon="35.1125100">
<ele>460.940002</ele>
<time>2022-09-14T08:38:32.172Z</time>
</trkpt>
<trkpt lat="31.7556500" lon="35.1124300">
<ele>460.529999</ele>
<time>2022-09-14T08:38:32.172Z</time>
</trkpt>
<trkpt lat="31.7555700" lon="35.1123100">
<ele>460.290009</ele>
<time>2022-09-14T08:38:32.172Z</time>
</trkpt>
<trkpt lat="31.7555200" lon="35.1122500">
<ele>458.989990</ele>
<time>2022-09-14T08:38:32.172Z</time>
</trkpt>
<trkpt lat="31.7554500" lon="35.1122200">
<ele>457.449982</ele>
<time>2022-09-14T08:38:32.172Z</time>
</trkpt>
<trkpt lat="31.7553100" lon="35.1122800">
<ele>456.500000</ele>
<time>2022-09-14T08:38:32.172Z</time>
</trkpt>
<trkpt lat="31.7552500" lon="35.1122800">
<ele>455.599976</ele>
<time>2022-09-14T08:38:32.172Z</time>
</trkpt>
<trkpt lat="31.7552200" lon="35.1122400">
<ele>454.459991</ele>
<time>2022-09-14T08:38:32.172Z</time>
</trkpt>
<trkpt lat="31.7552500" lon="35.1118400">
<ele>453.320007</ele>
<time>2022-09-14T08:38:32.172Z</time>
</trkpt>
<trkpt lat="31.7552500" lon="35.1117900">
<ele>453.140015</ele>
<time>2022-09-14T08:38:32.172Z</time>
</trkpt>
</trkseg>
</trk>
</gpx>
